FW3681 Weather Reports


Display with metric or nautical units.
time (UTC)temp
F
wind
direction
speed
MPH
gust
MPH
rain 1hr
in
rain 24hr
in
rain mn
in
humidity
%
barometer
mb
20260905011903 77 326 2.0 3.0 0.00 0.00 0.00 84 1015.0
20260905011801 77 314 2.0 3.0 0.00 0.00 0.00 84 1015.0
20260905011701 77 319 1.0 3.0 0.00 0.00 0.00 84 1015.0
20260905011601 77 335 1.0 3.0 0.00 0.00 0.00 84 1015.0
20260905011505 77 307 1.0 3.0 0.00 0.00 0.00 84 1015.0
20260905011302 77 319 2.0 3.0 0.00 0.00 0.00 84 1014.9
20260905011101 77 321 2.0 3.0 0.00 0.00 0.00 84 1014.9
20260905011004 77 323 1.0 3.0 0.00 0.00 0.00 84 1014.8
20260905010903 77 307 2.0 3.0 0.00 0.00 0.00 84 1014.8
20260905010803 77 342 2.0 3.0 0.00 0.00 0.00 84 1014.7
20260905010703 77 314 0.0 3.0 0.00 0.00 0.00 84 1014.7
20260905010503 77 321 2.0 3.0 0.00 0.00 0.00 84 1014.6
20260905010304 77 309 2.0 3.0 0.00 0.00 0.00 84 1014.6
20260905010202 77 282 2.0 3.0 0.00 0.00 0.00 84 1014.5
20260905010004 77 323 2.0 3.0 0.00 0.00 0.00 84 1014.6
20260905005901 77 293 2.0 3.0 0.00 0.00 0.00 84 1014.5
20260905005800 77 300 1.0 3.0 0.00 0.00 0.00 84 1014.5
20260905005600 77 289 1.0 3.0 0.00 0.00 0.00 84 1014.6
20260905005503 77 328 2.0 3.0 0.00 0.00 0.00 84 1014.5
20260905005301 77 314 2.0 3.0 0.00 0.00 0.00 84 1014.5
20260905005201 77 323 2.0 3.0 0.00 0.00 0.00 84 1014.5
20260905005101 77 295 2.0 3.0 0.00 0.00 0.00 84 1014.5
20260905005004 77 326 2.0 3.0 0.00 0.00 0.00 84 1014.6
20260905004901 77 307 2.0 3.0 0.00 0.00 0.00 84 1014.6
20260905004801 77 321 0.0 3.0 0.00 0.00 0.00 84 1014.6
20260905004700 77 303 0.0 3.0 0.00 0.00 0.00 84 1014.7
20260905004600 77 303 0.0 3.0 0.00 0.00 0.00 84 1014.8
20260905004503 77 303 1.0 3.0 0.00 0.00 0.00 84 1014.6
20260905004301 77 307 2.0 3.0 0.00 0.00 0.00 84 1014.7
20260905004200 77 316 2.0 3.0 0.00 0.00 0.00 84 1014.6
20260905004101 77 302 2.0 3.0 0.00 0.00 0.00 84 1014.7
20260905003901 77 311 2.0 3.0 0.00 0.00 0.00 84 1014.6
20260905003800 77 297 2.0 3.0 0.00 0.00 0.00 83 1014.6
20260905003601 77 307 2.0 3.0 0.00 0.00 0.00 83 1014.6
20260905003502 77 286 2.0 3.0 0.00 0.00 0.00 83 1014.7
20260905003401 77 296 2.0 3.0 0.00 0.00 0.00 83 1014.6
20260905003301 77 296 2.0 3.0 0.00 0.00 0.00 83 1014.6
20260905003202 77 294 2.0 3.0 0.00 0.00 0.00 83 1014.6
20260905003103 77 283 2.0 3.0 0.00 0.00 0.00 83 1014.6
20260905003004 77 304 2.0 3.0 0.00 0.00 0.00 83 1014.7
20260905002900 77 297 3.0 3.0 0.00 0.00 0.00 83 1014.7
20260905002800 77 284 0.0 3.0 0.00 0.00 0.00 83 1014.6
20260905002600 77 271 3.0 3.0 0.00 0.00 0.00 84 1014.6
20260905002503 77 304 2.0 3.0 0.00 0.00 0.00 83 1014.6
20260905002400 77 278 2.0 3.0 0.00 0.00 0.00 83 1014.6
20260905002300 77 293 2.0 3.0 0.00 0.00 0.00 83 1014.6
20260905002201 77 326 1.0 3.0 0.00 0.00 0.00 83 1014.5
20260905002100 77 295 2.0 3.0 0.00 0.00 0.00 83 1014.5
20260905001900 77 302 0.0 3.0 0.00 0.00 0.00 83 1014.5
20260905001801 77 323 2.0 3.0 0.00 0.00 0.00 83 1014.4
20260905001700 77 326 2.0 3.0 0.00 0.00 0.00 83 1014.4
20260905001600 77 307 1.0 3.0 0.00 0.00 0.00 83 1014.4
20260905001400 77 338 0.0 3.0 0.00 0.00 0.00 83 1014.5
20260905001301 77 309 2.0 3.0 0.00 0.00 0.00 83 1014.3
20260905001201 77 330 2.0 3.0 0.00 0.00 0.00 83 1014.4
20260905001100 77 331 2.0 3.0 0.00 0.00 0.00 83 1014.4
20260905001004 77 335 2.0 3.0 0.00 0.00 0.00 83 1014.4
20260905000901 77 314 2.0 3.0 0.00 0.00 0.00 83 1014.5
20260905000801 77 311 1.0 3.0 0.00 0.00 0.00 83 1014.4
20260905000701 77 319 0.0 2.0 0.00 0.00 0.00 83 1014.4
20260905000601 77 333 0.0 3.0 0.00 0.00 0.00 83 1014.4
20260905000503 77 333 0.0 3.0 0.00 0.00 0.00 83 1014.5
20260905000402 77 323 0.0 3.0 0.00 0.00 0.00 83 1014.5
20260905000204 77 329 0.0 3.0 0.00 0.00 0.00 83 1014.4
20260905000100 77 323 0.0 3.0 0.00 0.00 0.00 83 1014.4
20260905000004 77 360 0.0 3.0 0.00 0.00 0.00 83 1014.5
20260904235901 77 328 0.0 3.0 0.00 0.00 0.00 83 1014.5
20260904235801 77 303 2.0 3.0 0.00 0.00 0.00 83 1014.4
20260904235700 77 330 1.0 3.0 0.00 0.00 0.00 82 1014.4
20260904235503 77 342 1.0 5.0 0.00 0.00 0.00 82 1014.4
20260904235400 77 304 1.0 5.0 0.00 0.00 0.00 82 1014.3
20260904235305 77 316 2.0 5.0 0.00 0.00 0.00 82 1014.4
20260904235200 77 323 2.0 5.0 0.00 0.00 0.00 82 1014.3
20260904235101 77 302 2.0 5.0 0.00 0.00 0.00 82 1014.3
20260904234701 78 354 2.0 5.0 0.00 0.00 0.00 82 1014.2
20260904234601 78 302 0.0 3.0 0.00 0.00 0.00 82 1014.2
20260904234503 78 309 0.0 3.0 0.00 0.00 0.00 82 1014.1
20260904234302 78 307 2.0 3.0 0.00 0.00 0.00 82 1014.0
20260904234201 78 340 2.0 3.0 0.00 0.00 0.00 81 1014.1
20260904234100 78 319 0.0 3.0 0.00 0.00 0.00 81 1014.0
20260904234004 78 311 0.0 3.0 0.00 0.00 0.00 81 1014.0
20260904233900 78 338 0.0 3.0 0.00 0.00 0.00 81 1014.0
20260904233801 78 360 2.0 3.0 0.00 0.00 0.00 81 1014.0
20260904233700 78 301 1.0 3.0 0.00 0.00 0.00 81 1014.0
20260904233600 78 302 1.0 3.0 0.00 0.00 0.00 81 1014.0
20260904233503 78 338 2.0 4.0 0.00 0.00 0.00 82 1013.9
20260904233402 78 319 1.0 4.0 0.00 0.00 0.00 81 1014.0
20260904233301 78 321 0.0 4.0 0.00 0.00 0.00 81 1013.9
20260904233201 78 356 2.0 5.0 0.00 0.00 0.00 82 1014.1
20260904233100 78 304 3.0 5.0 0.00 0.00 0.00 82 1014.0
20260904233004 78 295 1.0 5.0 0.00 0.00 0.00 82 1014.1
20260904232900 78 338 2.0 5.0 0.00 0.00 0.00 82 1014.1
20260904232800 78 302 3.0 5.0 0.00 0.00 0.00 82 1014.0
20260904232702 78 311 3.0 5.0 0.00 0.00 0.00 82 1013.8
20260904232600 78 303 4.0 5.0 0.00 0.00 0.00 82 1013.9
20260904232503 78 300 2.0 5.0 0.00 0.00 0.00 82 1013.8
20260904232400 78 269 3.0 5.0 0.00 0.00 0.00 82 1013.9
20260904232200 78 359 3.0 3.0 0.00 0.00 0.00 82 1013.8
20260904232003 78 326 2.0 3.0 0.00 0.00 0.00 82 1013.8
20260904231901 78 303 2.0 3.0 0.00 0.00 0.00 82 1013.8
20260904231800 78 321 2.0 3.0 0.00 0.00 0.00 82 1013.8
20260904231700 78 293 2.0 3.0 0.00 0.00 0.00 82 1013.8
20260904231400 78 283 1.0 4.0 0.00 0.00 0.00 81 1013.9
20260904231300 78 296 1.0 4.0 0.00 0.00 0.00 81 1013.8
20260904231200 78 265 0.0 4.0 0.00 0.00 0.00 81 1013.8
20260904231101 78 347 2.0 4.0 0.00 0.00 0.00 81 1013.9
20260904231004 78 322 0.0 4.0 0.00 0.00 0.00 81 1013.7
20260904230901 78 329 0.0 4.0 0.00 0.00 0.00 81 1013.7
20260904230601 78 314 0.0 3.0 0.00 0.00 0.00 81 1013.7
20260904230503 78 296 2.0 3.0 0.00 0.00 0.00 81 1013.7
20260904230402 78 279 2.0 3.0 0.00 0.00 0.00 81 1013.7
20260904230300 78 302 0.0 3.0 0.00 0.00 0.00 81 1013.7
20260904230201 78 302 0.0 3.0 0.00 0.00 0.00 81 1013.7
20260904230006 78 347 2.0 3.0 0.00 0.00 0.00 81 1013.7
20260904225901 78 319 0.0 4.0 0.00 0.00 0.00 81 1013.6
20260904225801 78 319 0.0 4.0 0.00 0.00 0.00 81 1013.6
20260904225701 78 329 2.0 4.0 0.00 0.00 0.00 82 1013.7
20260904225601 78 324 3.0 4.0 0.00 0.00 0.00 82 1013.7
20260904225503 78 302 2.0 5.0 0.00 0.00 0.00 82 1013.6
20260904225401 78 287 2.0 5.0 0.00 0.00 0.00 82 1013.7
20260904225300 78 300 3.0 5.0 0.00 0.00 0.00 81 1013.7
20260904225202 78 316 3.0 5.0 0.00 0.00 0.00 81 1013.7
20260904225101 78 336 1.0 5.0 0.00 0.00 0.00 81 1013.7
20260904225004 78 324 4.0 5.0 0.00 0.00 0.00 81 1013.7
20260904224901 78 326 2.0 5.0 0.00 0.00 0.00 81 1013.7
20260904224802 78 321 0.0 5.0 0.00 0.00 0.00 81 1013.6
20260904224601 79 293 5.0 5.0 0.00 0.00 0.00 81 1013.7
20260904224503 79 310 2.0 4.0 0.00 0.00 0.00 81 1013.6
20260904224301 79 326 2.0 3.0 0.00 0.00 0.00 81 1013.6
20260904224201 79 297 2.0 3.0 0.00 0.00 0.00 81 1013.6
20260904224101 79 316 1.0 3.0 0.00 0.00 0.00 80 1013.6
20260904224004 79 295 2.0 3.0 0.00 0.00 0.00 80 1013.5
20260904223900 79 317 2.0 3.0 0.00 0.00 0.00 80 1013.4
20260904223800 79 302 0.0 3.0 0.00 0.00 0.00 80 1013.4
20260904223600 79 307 0.0 3.0 0.00 0.00 0.00 80 1013.4
20260904223401 79 273 3.0 3.0 0.00 0.00 0.00 80 1013.5
20260904223302 79 285 1.0 3.0 0.00 0.00 0.00 80 1013.6
20260904223201 79 257 1.0 3.0 0.00 0.00 0.00 80 1013.7
20260904222900 79 302 3.0 3.0 0.00 0.00 0.00 80 1013.7
20260904222800 79 295 2.0 3.0 0.00 0.00 0.00 80 1013.6
20260904222700 79 340 3.0 3.0 0.00 0.00 0.00 80 1013.5
20260904222602 79 328 2.0 3.0 0.00 0.00 0.00 80 1013.6
20260904222400 79 328 1.0 3.0 0.00 0.00 0.00 80 1013.5
20260904222301 79 287 2.0 3.0 0.00 0.00 0.00 80 1013.4
20260904222201 79 286 2.0 3.0 0.00 0.00 0.00 80 1013.4
20260904222101 79 287 3.0 3.0 0.00 0.00 0.00 80 1013.5
20260904222005 79 12 2.0 3.0 0.00 0.00 0.00 80 1013.5
20260904221901 79 303 3.0 3.0 0.00 0.00 0.00 79 1013.5
20260904221801 79 253 3.0 3.0 0.00 0.00 0.00 80 1013.5
20260904221700 80 151 0.0 3.0 0.00 0.00 0.00 79 1013.6
20260904221601 80 307 2.0 3.0 0.00 0.00 0.00 79 1013.7
20260904221302 80 273 1.0 4.0 0.00 0.00 0.00 79 1013.9
20260904221200 80 302 2.0 4.0 0.00 0.00 0.00 79 1013.9
20260904221100 80 305 0.0 4.0 0.00 0.00 0.00 79 1013.9
20260904221003 80 326 0.0 4.0 0.00 0.00 0.00 79 1013.9
20260904220900 80 311 1.0 4.0 0.00 0.00 0.00 79 1013.9
20260904220800 80 286 2.0 4.0 0.00 0.00 0.00 79 1013.9
20260904220701 80 262 3.0 4.0 0.00 0.00 0.00 79 1013.9
20260904220503 80 315 0.0 4.0 0.00 0.00 0.00 79 1013.9
20260904220401 80 285 2.0 4.0 0.00 0.00 0.00 79 1013.9
20260904220302 80 271 3.0 4.0 0.00 0.00 0.00 79 1013.8
20260904220201 80 297 2.0 4.0 0.00 0.00 0.00 78 1013.8
20260904220101 80 282 4.0 4.0 0.00 0.00 0.00 78 1013.8
20260904215801 80 305 0.0 4.0 0.00 0.00 0.00 78 1013.8
20260904215700 80 160 0.0 4.0 0.00 0.00 0.00 78 1013.8
20260904215601 80 163 1.0 4.0 0.00 0.00 0.00 79 1013.8
20260904215503 80 276 0.0 4.0 0.00 0.00 0.00 78 1013.8
20260904215401 80 287 0.0 4.0 0.00 0.00 0.00 79 1013.8
20260904215200 80 264 3.0 3.0 0.00 0.00 0.00 79 1013.9
20260904215004 80 162 0.0 3.0 0.00 0.00 0.00 79 1014.0
20260904214902 80 162 0.0 3.0 0.00 0.00 0.00 79 1013.9
20260904214801 80 300 0.0 4.0 0.00 0.00 0.00 79 1014.0
20260904214700 80 288 3.0 4.0 0.00 0.00 0.00 79 1013.9
20260904214601 80 302 0.0 4.0 0.00 0.00 0.00 78 1014.1
20260904214504 80 340 0.0 4.0 0.00 0.00 0.00 79 1014.2
20260904214401 80 314 0.0 4.0 0.00 0.00 0.00 79 1014.2
20260904214301 80 295 2.0 4.0 0.00 0.00 0.00 79 1014.1
20260904214200 80 352 0.0 4.0 0.00 0.00 0.00 79 1014.0
20260904214101 80 321 1.0 4.0 0.00 0.00 0.00 79 1013.9
20260904213901 80 301 2.0 4.0 0.00 0.00 0.00 79 1014.0
20260904213800 79 303 2.0 4.0 0.00 0.00 0.00 79 1013.9
20260904213700 80 310 2.0 4.0 0.00 0.00 0.00 79 1013.9
20260904213601 80 300 1.0 4.0 0.00 0.00 0.00 79 1013.8
20260904213503 80 300 1.0 4.0 0.00 0.00 0.00 79 1013.9
20260904213301 80 280 3.0 4.0 0.00 0.00 0.00 79 1013.8
20260904213201 80 286 3.0 4.0 0.00 0.00 0.00 79 1013.7
20260904213101 80 268 3.0 4.0 0.00 0.00 0.00 79 1013.7
20260904213005 80 278 3.0 4.0 0.00 0.00 0.00 79 1013.8
20260904212902 79 293 2.0 4.0 0.00 0.00 0.00 79 1013.8
20260904212701 79 302 0.0 4.0 0.00 0.00 0.00 79 1013.7
20260904212601 79 19 0.0 4.0 0.00 0.00 0.00 79 1013.7
20260904212503 79 252 0.0 4.0 0.00 0.00 0.00 79 1013.7
20260904212401 79 293 1.0 4.0 0.00 0.00 0.00 79 1013.7
20260904212301 79 289 2.0 4.0 0.00 0.00 0.00 79 1013.8
20260904212200 79 255 3.0 4.0 0.00 0.00 0.00 79 1013.8
20260904212101 79 268 3.0 4.0 0.00 0.00 0.00 79 1013.9
20260904212005 79 307 4.0 4.0 0.00 0.00 0.00 79 1014.0
20260904211900 79 293 3.0 4.0 0.00 0.00 0.00 79 1014.1
20260904211702 80 319 3.0 3.0 0.00 0.00 0.00 79 1014.2
20260904211600 80 280 2.0 3.0 0.00 0.00 0.00 78 1014.2
20260904211503 80 25 0.0 4.0 0.00 0.00 0.00 78 1014.2
20260904211401 80 153 0.0 4.0 0.00 0.00 0.00 78 1014.2
20260904211301 80 319 0.0 5.0 0.00 0.00 0.00 78 1014.0
20260904211101 80 335 2.0 5.0 0.00 0.00 0.00 78 1014.0
20260904210900 80 219 0.0 5.0 0.00 0.00 0.00 77 1014.0
20260904210801 80 269 1.0 5.0 0.00 0.00 0.00 77 1014.0
20260904210701 80 260 2.0 5.0 0.00 0.00 0.00 77 1014.0
20260904210601 80 56 2.0 5.0 0.00 0.00 0.00 77 1013.9
20260904210503 80 258 2.0 5.0 0.00 0.00 0.00 76 1013.9
20260904210202 81 288 0.0 5.0 0.00 0.00 0.00 77 1013.8
20260904210101 81 262 1.0 5.0 0.00 0.00 0.00 76 1013.7
20260904210008 81 169 0.0 5.0 0.00 0.00 0.00 76 1013.7
20260904205902 81 71 3.0 6.0 0.00 0.00 0.00 76 1013.8
20260904205804 81 179 0.0 6.0 0.00 0.00 0.00 76 1013.8
20260904205702 81 8 2.0 6.0 0.00 0.00 0.00 76 1013.7
20260904205601 81 258 2.0 6.0 0.00 0.00 0.00 76 1013.9
20260904205503 81 338 0.0 6.0 0.00 0.00 0.00 76 1014.0
20260904205305 82 121 2.0 6.0 0.00 0.00 0.00 75 1014.0
20260904205102 82 153 3.0 6.0 0.00 0.00 0.00 75 1014.1
20260904205004 82 139 2.0 4.0 0.00 0.00 0.00 75 1014.2
20260904204901 82 142 3.0 4.0 0.00 0.00 0.00 75 1014.1
20260904204802 82 122 3.0 6.0 0.00 0.00 0.00 76 1014.1
20260904204701 82 258 2.0 6.0 0.00 0.00 0.00 76 1014.1
20260904204601 82 288 0.0 6.0 0.00 0.00 0.00 76 1014.2
20260904204503 82 233 0.0 6.0 0.00 0.00 0.00 75 1014.2
20260904204401 82 239 3.0 6.0 0.00 0.00 0.00 75 1014.2
20260904204101 82 169 1.0 6.0 0.00 0.00 0.00 74 1014.3
20260904204005 83 228 0.0 6.0 0.00 0.00 0.00 74 1014.3
20260904203902 83 298 0.0 6.0 0.00 0.00 0.00 73 1014.3
20260904203802 83 33 3.0 6.0 0.00 0.00 0.00 73 1014.2
20260904203401 84 262 3.0 6.0 0.00 0.00 0.00 71 1014.2
20260904203301 84 133 4.0 6.0 0.00 0.00 0.00 71 1014.1
20260904203202 84 143 1.0 6.0 0.00 0.00 0.00 71 1014.1
20260904203103 85 360 0.0 8.0 0.00 0.00 0.00 71 1014.1
20260904203006 85 105 1.0 8.0 0.00 0.00 0.00 70 1014.0
20260904202801 85 63 0.0 8.0 0.00 0.00 0.00 70 1014.1
20260904202701 85 324 3.0 8.0 0.00 0.00 0.00 71 1014.0
20260904202602 85 273 3.0 8.0 0.00 0.00 0.00 71 1014.0
20260904202504 85 349 6.0 8.0 0.00 0.00 0.00 70 1014.1
20260904202403 85 336 0.0 8.0 0.00 0.00 0.00 69 1014.1
20260904202301 85 342 4.0 8.0 0.00 0.00 0.00 68 1014.1
20260904202203 86 11 4.0 8.0 0.00 0.00 0.00 68 1014.1
20260904202102 86 139 0.0 10.0 0.00 0.00 0.00 68 1014.0
20260904201901 87 357 2.0 10.0 0.00 0.00 0.00 67 1013.9
20260904201802 87 328 3.0 10.0 0.00 0.00 0.00 66 1013.8
20260904201702 88 279 5.0 10.0 0.00 0.00 0.00 65 1013.8
20260904201602 89 306 3.0 10.0 0.00 0.00 0.00 63 1013.8
20260904201504 90 49 4.0 10.0 0.00 0.00 0.00 62 1013.6
20260904201401 91 11 4.0 10.0 0.00 0.00 0.00 61 1013.7
20260904201301 92 26 7.0 10.0 0.00 0.00 0.00 59 1013.7
20260904201202 93 352 7.0 10.0 0.00 0.00 0.00 57 1013.7
20260904201101 93 351 5.0 10.0 0.00 0.00 0.00 56 1013.7
20260904201006 93 322 5.0 9.0 0.00 0.00 0.00 56 1013.7
20260904200902 93 8 2.0 9.0 0.00 0.00 0.00 56 1013.6
20260904200702 94 8 3.0 7.0 0.00 0.00 0.00 55 1013.6
20260904200602 94 8 4.0 7.0 0.00 0.00 0.00 54 1013.6
20260904200503 94 30 4.0 7.0 0.00 0.00 0.00 54 1013.5
20260904200402 94 347 4.0 7.0 0.00 0.00 0.00 53 1013.6
20260904200304 95 321 5.0 7.0 0.00 0.00 0.00 53 1013.6
20260904200203 95 294 3.0 7.0 0.00 0.00 0.00 53 1013.6
20260904200101 96 318 2.0 7.0 0.00 0.00 0.00 52 1013.5
20260904200007 96 354 5.0 7.0 0.00 0.00 0.00 53 1013.5
20260904195900 96 11 3.0 7.0 0.00 0.00 0.00 53 1013.4
20260904195800 95 360 5.0 7.0 0.00 0.00 0.00 54 1013.4
20260904195701 95 15 7.0 7.0 0.00 0.00 0.00 53 1013.4
20260904195601 95 348 5.0 7.0 0.00 0.00 0.00 54 1013.5
20260904195502 95 13 3.0 6.0 0.00 0.00 0.00 54 1013.5
20260904195400 95 348 6.0 6.0 0.00 0.00 0.00 54 1013.5
20260904195300 95 30 3.0 6.0 0.00 0.00 0.00 54 1013.5
20260904195200 95 351 4.0 6.0 0.00 0.00 0.00 53 1013.5
20260904195102 95 6 5.0 6.0 0.00 0.00 0.00 53 1013.5
20260904195003 94 338 5.0 6.0 0.00 0.00 0.00 54 1013.5
20260904194800 94 8 6.0 6.0 0.00 0.00 0.00 55 1013.5
20260904194701 94 355 1.0 6.0 0.00 0.00 0.00 56 1013.4
20260904194601 93 357 2.0 6.0 0.00 0.00 0.00 56 1013.5
20260904194503 93 1 4.0 6.0 0.00 0.00 0.00 55 1013.5
20260904194400 93 341 4.0 6.0 0.00 0.00 0.00 55 1013.5
20260904194301 93 287 2.0 6.0 0.00 0.00 0.00 55 1013.5
20260904194200 94 305 3.0 6.0 0.00 0.00 0.00 55 1013.5
20260904194101 94 350 3.0 5.0 0.00 0.00 0.00 55 1013.5
20260904194006 94 4 4.0 6.0 0.00 0.00 0.00 56 1013.5
20260904193900 94 352 4.0 6.0 0.00 0.00 0.00 56 1013.5
20260904193700 94 351 4.0 6.0 0.00 0.00 0.00 54 1013.5
20260904193559 94 360 4.0 6.0 0.00 0.00 0.00 55 1013.4
20260904193503 94 8 3.0 9.0 0.00 0.00 0.00 55 1013.4
20260904193400 94 337 2.0 10.0 0.00 0.00 0.00 55 1013.4
20260904193300 94 306 3.0 10.0 0.00 0.00 0.00 54 1013.4
20260904193201 94 358 5.0 10.0 0.00 0.00 0.00 53 1013.4
20260904193101 95 310 2.0 10.0 0.00 0.00 0.00 54 1013.4
20260904193005 95 15 2.0 10.0 0.00 0.00 0.00 53 1013.4
20260904192900 95 343 4.0 10.0 0.00 0.00 0.00 54 1013.3
20260904192802 95 346 5.0 10.0 0.00 0.00 0.00 54 1013.4
20260904192700 95 360 4.0 10.0 0.00 0.00 0.00 53 1013.4
20260904192601 95 338 9.0 10.0 0.00 0.00 0.00 52 1013.5
20260904192503 96 340 5.0 10.0 0.00 0.00 0.00 52 1013.5
20260904192400 96 341 5.0 9.0 0.00 0.00 0.00 53 1013.6
20260904192100 95 3 7.0 9.0 0.00 0.00 0.00 53 1013.6
20260904191900 95 355 5.0 9.0 0.00 0.00 0.00 52 1013.6
20260904191801 95 346 6.0 9.0 0.00 0.00 0.00 53 1013.6
20260904191701 95 354 5.0 8.0 0.00 0.00 0.00 53 1013.6
20260904191600 94 341 5.0 8.0 0.00 0.00 0.00 56 1013.6
20260904191503 93 6 6.0 8.0 0.00 0.00 0.00 56 1013.6
20260904191401 93 341 4.0 8.0 0.00 0.00 0.00 55 1013.7
20260904191301 94 343 5.0 8.0 0.00 0.00 0.00 55 1013.7
20260904191200 94 348 6.0 8.0 0.00 0.00 0.00 55 1013.7
20260904191101 94 354 5.0 8.0 0.00 0.00 0.00 54 1013.8
20260904191003 95 34 2.0 8.0 0.00 0.00 0.00 54 1013.8
20260904190901 95 346 4.0 8.0 0.00 0.00 0.00 54 1013.8
20260904190800 95 338 1.0 8.0 0.00 0.00 0.00 55 1013.7
20260904190701 95 33 3.0 7.0 0.00 0.00 0.00 56 1013.7
20260904190601 95 24 1.0 7.0 0.00 0.00 0.00 55 1013.7
20260904190503 95 344 5.0 7.0 0.00 0.00 0.00 56 1013.8
20260904190400 95 315 3.0 7.0 0.00 0.00 0.00 55 1013.7
20260904190201 94 27 6.0 7.0 0.00 0.00 0.00 55 1013.8
20260904190100 94 55 2.0 8.0 0.00 0.00 0.00 56 1013.8
20260904190004 93 348 5.0 9.0 0.00 0.00 0.00 57 1013.9
20260904185901 93 347 5.0 9.0 0.00 0.00 0.00 55 1014.0
20260904185800 93 345 6.0 9.0 0.00 0.00 0.00 55 1014.0
20260904185702 94 345 3.0 9.0 0.00 0.00 0.00 55 1014.1
20260904185601 94 340 4.0 9.0 0.00 0.00 0.00 53 1014.2
20260904185502 95 68 0.0 9.0 0.00 0.00 0.00 53 1014.1
20260904185400 95 348 2.0 9.0 0.00 0.00 0.00 54 1014.1
20260904185301 95 357 4.0 9.0 0.00 0.00 0.00 53 1014.1
20260904185201 95 336 4.0 9.0 0.00 0.00 0.00 53 1014.1
20260904185101 96 350 5.0 9.0 0.00 0.00 0.00 53 1014.1
20260904185005 95 360 5.0 9.0 0.00 0.00 0.00 53 1014.1
20260904184901 95 335 4.0 9.0 0.00 0.00 0.00 55 1014.0
20260904184801 95 13 6.0 10.0 0.00 0.00 0.00 54 1014.1
20260904184601 94 341 5.0 10.0 0.00 0.00 0.00 54 1014.1
20260904184503 94 324 4.0 10.0 0.00 0.00 0.00 55 1014.0
20260904184400 94 351 5.0 10.0 0.00 0.00 0.00 55 1014.1
20260904184300 94 65 3.0 10.0 0.00 0.00 0.00 55 1014.1
20260904184202 94 326 4.0 10.0 0.00 0.00 0.00 56 1014.1
20260904184059 93 356 6.0 11.0 0.00 0.00 0.00 57 1014.1
20260904184004 93 342 4.0 12.0 0.00 0.00 0.00 58 1014.1
20260904183900 92 344 5.0 12.0 0.00 0.00 0.00 57 1014.1
20260904183700 93 341 4.0 12.0 0.00 0.00 0.00 57 1014.0
20260904183600 93 343 7.0 12.0 0.00 0.00 0.00 57 1014.1
20260904183503 93 6 7.0 12.0 0.00 0.00 0.00 57 1014.1
20260904183400 93 347 4.0 12.0 0.00 0.00 0.00 57 1014.0
20260904183300 93 335 5.0 12.0 0.00 0.00 0.00 56 1014.1
20260904183200 94 345 9.0 12.0 0.00 0.00 0.00 57 1014.0
20260904183101 94 348 8.0 8.0 0.00 0.00 0.00 58 1014.0
20260904183004 93 340 6.0 8.0 0.00 0.00 0.00 58 1014.0
20260904182801 93 34 1.0 10.0 0.00 0.00 0.00 58 1014.1
20260904182700 93 6 8.0 10.0 0.00 0.00 0.00 59 1014.2
20260904182601 93 330 5.0 10.0 0.00 0.00 0.00 59 1014.2
20260904182504 92 4 6.0 10.0 0.00 0.00 0.00 60 1014.1
20260904182400 92 45 3.0 10.0 0.00 0.00 0.00 59 1014.2
20260904182301 92 344 2.0 10.0 0.00 0.00 0.00 59 1014.2
20260904182200 92 358 6.0 10.0 0.00 0.00 0.00 58 1014.1
20260904182101 92 343 5.0 10.0 0.00 0.00 0.00 58 1014.2
20260904182003 93 343 5.0 10.0 0.00 0.00 0.00 58 1014.2
20260904181900 93 343 8.0 9.0 0.00 0.00 0.00 59 1014.2
20260904181801 93 352 5.0 7.0 0.00 0.00 0.00 58 1014.2
20260904181700 93 4 5.0 7.0 0.00 0.00 0.00 59 1014.2
20260904181600 93 59 1.0 7.0 0.00 0.00 0.00 59 1014.3
20260904181401 92 1 6.0 8.0 0.00 0.00 0.00 62 1014.4
20260904181301 91 341 5.0 8.0 0.00 0.00 0.00 61 1014.4
20260904181200 91 348 4.0 8.0 0.00 0.00 0.00 61 1014.4
20260904181101 91 337 5.0 8.0 0.00 0.00 0.00 60 1014.4
20260904181004 92 8 7.0 8.0 0.00 0.00 0.00 59 1014.5
20260904180900 92 347 4.0 8.0 0.00 0.00 0.00 59 1014.5
20260904180801 92 347 5.0 8.0 0.00 0.00 0.00 61 1014.5
20260904180701 91 324 3.0 8.0 0.00 0.00 0.00 61 1014.5
20260904180503 91 343 6.0 8.0 0.00 0.00 0.00 60 1014.5
20260904180400 91 347 5.0 8.0 0.00 0.00 0.00 60 1014.6
20260904180300 92 1 2.0 8.0 0.00 0.00 0.00 61 1014.7
20260904180201 91 25 6.0 8.0 0.00 0.00 0.00 60 1014.7
20260904180100 91 360 5.0 8.0 0.00 0.00 0.00 60 1014.6
20260904180005 91 337 6.0 9.0 0.00 0.00 0.00 60 1014.7
20260904175900 92 4 2.0 9.0 0.00 0.00 0.00 59 1014.8
20260904175600 92 13 6.0 9.0 0.00 0.00 0.00 59 1015.0
20260904175502 92 355 5.0 9.0 0.00 0.00 0.00 59 1015.0
20260904175400 92 320 5.0 9.0 0.00 0.00 0.00 59 1015.0
20260904175200 92 340 6.0 9.0 0.00 0.00 0.00 59 1015.0
20260904175102 93 356 8.0 9.0 0.00 0.00 0.00 59 1015.1
20260904175004 93 26 3.0 9.0 0.00 0.00 0.00 59 1015.0
20260904174900 93 355 5.0 8.0 0.00 0.00 0.00 57 1015.0
20260904174801 94 27 2.0 8.0 0.00 0.00 0.00 57 1015.1
20260904174601 94 354 3.0 8.0 0.00 0.00 0.00 57 1015.2
20260904174503 94 328 5.0 8.0 0.00 0.00 0.00 58 1015.2
20260904174400 94 354 6.0 8.0 0.00 0.00 0.00 58 1015.1
20260904174301 94 27 5.0 8.0 0.00 0.00 0.00 58 1015.2
20260904174200 94 79 3.0 8.0 0.00 0.00 0.00 59 1015.2
20260904174102 94 360 6.0 8.0 0.00 0.00 0.00 59 1015.2
20260904173801 93 329 3.0 8.0 0.00 0.00 0.00 60 1015.2
20260904173700 93 345 3.0 8.0 0.00 0.00 0.00 61 1015.2
20260904173602 92 6 8.0 8.0 0.00 0.00 0.00 61 1015.2
20260904173504 92 71 3.0 8.0 0.00 0.00 0.00 61 1015.2
20260904173300 93 41 2.0 8.0 0.00 0.00 0.00 59 1015.2
20260904173202 93 44 6.0 8.0 0.00 0.00 0.00 62 1015.3
20260904173011 92 347 5.0 7.0 0.00 0.00 0.00 63 1015.3
20260904172900 91 25 6.0 7.0 0.00 0.00 0.00 64 1015.3
20260904172700 91 345 3.0 7.0 0.00 0.00 0.00 65 1015.4
20260904172600 90 15 3.0 7.0 0.00 0.00 0.00 65 1015.4
20260904172503 90 359 4.0 7.0 0.00 0.00 0.00 64 1015.4
20260904172402 90 333 3.0 7.0 0.00 0.00 0.00 65 1015.5
20260904172201 90 39 4.0 8.0 0.00 0.00 0.00 67 1015.4
20260904172100 89 12 3.0 8.0 0.00 0.00 0.00 66 1015.5
20260904172004 88 17 5.0 8.0 0.00 0.00 0.00 66 1015.5
20260904171900 88 41 2.0 8.0 0.00 0.00 0.00 67 1015.6
20260904171800 88 70 3.0 8.0 0.00 0.00 0.00 67 1015.5
20260904171700 88 341 3.0 8.0 0.00 0.00 0.00 68 1015.6
20260904171600 88 136 3.0 8.0 0.00 0.00 0.00 67 1015.6
20260904171503 88 8 4.0 8.0 0.00 0.00 0.00 67 1015.5
20260904171400 88 25 3.0 7.0 0.00 0.00 0.00 67 1015.7
20260904171301 88 77 4.0 6.0 0.00 0.00 0.00 67 1015.6
20260904171200 88 31 3.0 6.0 0.00 0.00 0.00 68 1015.7
20260904171100 88 355 5.0 6.0 0.00 0.00 0.00 67 1015.8
20260904171004 88 91 2.0 6.0 0.00 0.00 0.00 68 1015.8
20260904170900 88 39 3.0 5.0 0.00 0.00 0.00 68 1015.8
20260904170801 88 41 2.0 5.0 0.00 0.00 0.00 68 1015.8
20260904170701 88 13 2.0 6.0 0.00 0.00 0.00 68 1015.8
20260904170602 87 360 1.0 6.0 0.00 0.00 0.00 68 1015.8
20260904170503 88 346 0.0 6.0 0.00 0.00 0.00 68 1015.9
20260904170300 88 3 5.0 6.0 0.00 0.00 0.00 69 1016.0
20260904170159 87 26 2.0 6.0 0.00 0.00 0.00 69 1016.0
20260904170008 88 352 2.0 6.0 0.00 0.00 0.00 69 1016.1
20260904165900 88 10 4.0 6.0 0.00 0.00 0.00 68 1016.0
20260904165601 88 352 4.0 8.0 0.00 0.00 0.00 68 1016.1
20260904165300 88 41 4.0 8.0 0.00 0.00 0.00 68 1016.0
20260904165200 88 64 0.0 8.0 0.00 0.00 0.00 68 1015.9
20260904165101 88 348 4.0 8.0 0.00 0.00 0.00 68 1016.0
20260904165004 88 34 0.0 8.0 0.00 0.00 0.00 67 1016.0
20260904164900 88 32 4.0 8.0 0.00 0.00 0.00 68 1016.0
20260904164701 89 339 3.0 8.0 0.00 0.00 0.00 65 1016.1
20260904164601 89 5 3.0 8.0 0.00 0.00 0.00 66 1016.0
20260904164503 89 33 5.0 8.0 0.00 0.00 0.00 66 1016.0
20260904164300 89 6 8.0 8.0 0.00 0.00 0.00 66 1016.0
20260904164201 90 350 5.0 7.0 0.00 0.00 0.00 65 1016.0
20260904164004 90 359 4.0 7.0 0.00 0.00 0.00 66 1016.0
20260904163901 90 23 5.0 7.0 0.00 0.00 0.00 67 1015.9
20260904163801 90 10 3.0 7.0 0.00 0.00 0.00 66 1016.0
20260904163700 90 348 4.0 7.0 0.00 0.00 0.00 67 1016.0
20260904163600 90 1 4.0 7.0 0.00 0.00 0.00 67 1015.9
20260904163502 90 3 5.0 7.0 0.00 0.00 0.00 68 1016.0
20260904163400 89 348 4.0 7.0 0.00 0.00 0.00 68 1015.9
20260904163300 89 3 3.0 7.0 0.00 0.00 0.00 68 1016.0
20260904163201 88 4 4.0 7.0 0.00 0.00 0.00 68 1016.1
20260904163004 89 336 3.0 7.0 0.00 0.00 0.00 67 1016.1
20260904162900 89 19 4.0 7.0 0.00 0.00 0.00 68 1016.1
20260904162700 89 360 6.0 7.0 0.00 0.00 0.00 68 1016.2
20260904162503 89 360 3.0 7.0 0.00 0.00 0.00 67 1016.3
20260904162401 89 345 3.0 7.0 0.00 0.00 0.00 67 1016.2
20260904162300 89 24 3.0 7.0 0.00 0.00 0.00 67 1016.2
20260904162200 89 360 3.0 7.0 0.00 0.00 0.00 67 1016.2
20260904162100 89 311 2.0 7.0 0.00 0.00 0.00 66 1016.2
20260904162003 89 73 2.0 7.0 0.00 0.00 0.00 67 1016.2
20260904161801 89 39 5.0 7.0 0.00 0.00 0.00 69 1016.2
20260904161701 89 75 3.0 6.0 0.00 0.00 0.00 71 1016.2
20260904161601 88 303 0.0 6.0 0.00 0.00 0.00 71 1016.2
20260904161503 87 288 3.0 6.0 0.00 0.00 0.00 72 1016.2
20260904161400 87 335 3.0 6.0 0.00 0.00 0.00 72 1016.2
20260904161200 86 346 3.0 6.0 0.00 0.00 0.00 73 1016.3
20260904161100 86 353 5.0 6.0 0.00 0.00 0.00 73 1016.2
20260904161004 86 144 0.0 6.0 0.00 0.00 0.00 72 1016.2
20260904160901 86 34 3.0 6.0 0.00 0.00 0.00 73 1016.3
20260904160802 86 310 2.0 6.0 0.00 0.00 0.00 72 1016.3
20260904160700 86 356 2.0 6.0 0.00 0.00 0.00 72 1016.3
20260904160600 86 22 1.0 6.0 0.00 0.00 0.00 71 1016.3
20260904160503 87 113 4.0 6.0 0.00 0.00 0.00 71 1016.2
20260904160301 87 1 4.0 6.0 0.00 0.00 0.00 70 1016.3
20260904160201 87 360 2.0 6.0 0.00 0.00 0.00 71 1016.2
20260904160100 88 345 2.0 6.0 0.00 0.00 0.00 71 1016.3
20260904160006 88 75 2.0 6.0 0.00 0.00 0.00 70 1016.3
20260904155901 88 13 4.0 6.0 0.00 0.00 0.00 71 1016.2
20260904155800 87 1 4.0 6.0 0.00 0.00 0.00 73 1016.3
20260904155700 87 8 4.0 6.0 0.00 0.00 0.00 73 1016.2
20260904155600 87 4 5.0 5.0 0.00 0.00 0.00 73 1016.3
20260904155400 86 289 0.0 4.0 0.00 0.00 0.00 75 1016.4
20260904155301 85 8 3.0 4.0 0.00 0.00 0.00 75 1016.3
20260904155201 85 352 3.0 4.0 0.00 0.00 0.00 74 1016.4
20260904155100 85 33 0.0 4.0 0.00 0.00 0.00 75 1016.3
20260904155005 85 70 2.0 4.0 0.00 0.00 0.00 74 1016.3
20260904154901 85 107 3.0 5.0 0.00 0.00 0.00 74 1016.2
20260904154800 85 349 0.0 5.0 0.00 0.00 0.00 74 1016.2
20260904154702 86 111 3.0 5.0 0.00 0.00 0.00 74 1016.2
20260904154600 86 357 4.0 5.0 0.00 0.00 0.00 75 1016.2
20260904154502 85 1 4.0 5.0 0.00 0.00 0.00 75 1016.2
20260904154400 85 26 3.0 5.0 0.00 0.00 0.00 75 1016.2
20260904154301 85 324 4.0 5.0 0.00 0.00 0.00 75 1016.2
20260904154200 85 13 4.0 5.0 0.00 0.00 0.00 76 1016.2
20260904154100 85 350 4.0 5.0 0.00 0.00 0.00 76 1016.2
20260904154004 85 340 4.0 5.0 0.00 0.00 0.00 76 1016.2
20260904153800 85 263 2.0 5.0 0.00 0.00 0.00 76 1016.2
20260904153701 85 1 3.0 5.0 0.00 0.00 0.00 76 1016.2
20260904153600 85 292 1.0 6.0 0.00 0.00 0.00 76 1016.2
20260904153503 85 76 4.0 6.0 0.00 0.00 0.00 76 1016.2
20260904153400 85 8 2.0 6.0 0.00 0.00 0.00 75 1016.2
20260904153300 85 107 0.0 6.0 0.00 0.00 0.00 75 1016.2
20260904153159 85 326 0.0 6.0 0.00 0.00 0.00 74 1016.2
20260904153101 86 360 4.0 6.0 0.00 0.00 0.00 74 1016.2
20260904153003 86 360 4.0 6.0 0.00 0.00 0.00 74 1016.2
20260904152901 86 360 4.0 6.0 0.00 0.00 0.00 74 1016.2
20260904152801 86 360 4.0 6.0 0.00 0.00 0.00 74 1016.3
20260904152558 86 353 5.0 6.0 0.00 0.00 0.00 75 1016.1
20260904152459 86 352 2.0 6.0 0.00 0.00 0.00 76 1016.1
20260904152400 85 349 3.0 6.0 0.00 0.00 0.00 76 1016.1
20260904152258 85 17 4.0 6.0 0.00 0.00 0.00 75 1016.2
20260904152200 85 341 5.0 6.0 0.00 0.00 0.00 75 1016.1
20260904151858 85 335 3.0 5.0 0.00 0.00 0.00 76 1016.1
20260904151759 85 49 0.0 5.0 0.00 0.00 0.00 75 1016.1
20260904151659 86 105 3.0 5.0 0.00 0.00 0.00 75 1016.1
20260904151558 85 338 3.0 5.0 0.00 0.00 0.00 76 1016.1
20260904151059 85 8 2.0 5.0 0.00 0.00 0.00 76 1016.1
20260904151002 85 334 3.0 5.0 0.00 0.00 0.00 76 1016.2
20260904150858 84 354 0.0 6.0 0.00 0.00 0.00 76 1016.2
20260904150759 84 323 1.0 6.0 0.00 0.00 0.00 76 1016.2
20260904150700 85 73 2.0 6.0 0.00 0.00 0.00 76 1016.2
20260904150558 85 71 0.0 6.0 0.00 0.00 0.00 76 1016.1
20260904150503 84 343 3.0 6.0 0.00 0.00 0.00 76 1016.0
20260904150358 84 342 3.0 6.0 0.00 0.00 0.00 76 1016.0
20260904150258 84 322 5.0 6.0 0.00 0.00 0.00 76 1016.0
20260904150159 84 140 3.0 6.0 0.00 0.00 0.00 77 1016.0
20260904150100 84 359 4.0 6.0 0.00 0.00 0.00 77 1015.9
20260904150003 84 345 4.0 6.0 0.00 0.00 0.00 77 1016.1
20260904145858 84 353 1.0 6.0 0.00 0.00 0.00 78 1016.0
20260904145758 84 1 3.0 6.0 0.00 0.00 0.00 78 1016.0
20260904145658 84 341 3.0 4.0 0.00 0.00 0.00 78 1016.0
20260904145558 83 338 1.0 4.0 0.00 0.00 0.00 78 1016.0
20260904145500 83 91 3.0 4.0 0.00 0.00 0.00 79 1016.1
20260904145358 83 359 3.0 4.0 0.00 0.00 0.00 79 1015.9
20260904145258 83 6 2.0 4.0 0.00 0.00 0.00 79 1016.0
20260904145200 83 312 2.0 4.0 0.00 0.00 0.00 79 1016.0
20260904145059 83 289 4.0 4.0 0.00 0.00 0.00 79 1015.9
20260904144859 83 322 3.0 4.0 0.00 0.00 0.00 80 1015.9
20260904144758 83 302 2.0 4.0 0.00 0.00 0.00 79 1016.0
20260904144700 83 285 1.0 4.0 0.00 0.00 0.00 79 1016.0
20260904144459 83 310 0.0 4.0 0.00 0.00 0.00 79 1016.0
20260904144359 83 347 3.0 4.0 0.00 0.00 0.00 80 1016.0
20260904144159 83 22 4.0 4.0 0.00 0.00 0.00 81 1016.0
20260904143858 82 135 0.0 4.0 0.00 0.00 0.00 81 1016.0
20260904143800 82 33 2.0 4.0 0.00 0.00 0.00 81 1016.0
20260904143659 82 360 3.0 3.0 0.00 0.00 0.00 82 1015.9
20260904143559 81 338 0.0 3.0 0.00 0.00 0.00 82 1015.9
20260904143500 81 290 0.0 3.0 0.00 0.00 0.00 82 1016.0
20260904143359 81 149 1.0 3.0 0.00 0.00 0.00 82 1015.9
20260904143258 81 151 0.0 3.0 0.00 0.00 0.00 82 1015.9
20260904143059 81 141 1.0 3.0 0.00 0.00 0.00 81 1016.0
20260904143003 81 52 0.0 3.0 0.00 0.00 0.00 81 1016.0
20260904142859 81 249 0.0 3.0 0.00 0.00 0.00 81 1016.0
20260904142700 81 131 0.0 4.0 0.00 0.00 0.00 81 1015.9
20260904142559 82 338 0.0 4.0 0.00 0.00 0.00 81 1015.9
20260904142500 82 130 0.0 4.0 0.00 0.00 0.00 81 1015.9
20260904142358 82 130 1.0 4.0 0.00 0.00 0.00 81 1015.8
20260904142259 82 276 1.0 4.0 0.00 0.00 0.00 81 1015.8
20260904142159 82 291 3.0 4.0 0.00 0.00 0.00 82 1015.7
20260904141759 81 246 0.0 3.0 0.00 0.00 0.00 83 1015.8
20260904141559 81 269 0.0 3.0 0.00 0.00 0.00 83 1015.8
20260904141501 81 198 0.0 3.0 0.00 0.00 0.00 83 1015.7
20260904141358 80 128 0.0 3.0 0.00 0.00 0.00 83 1015.8
20260904141258 80 304 0.0 3.0 0.00 0.00 0.00 83 1015.8
20260904141158 80 233 0.0 3.0 0.00 0.00 0.00 83 1015.7
20260904141058 80 340 1.0 3.0 0.00 0.00 0.00 82 1015.7
20260904141003 81 155 0.0 3.0 0.00 0.00 0.00 83 1015.8
20260904140858 81 286 0.0 3.0 0.00 0.00 0.00 82 1015.7
20260904140759 81 143 0.0 3.0 0.00 0.00 0.00 82 1015.7
20260904140658 81 169 0.0 3.0 0.00 0.00 0.00 82 1015.8
20260904140559 81 239 1.0 3.0 0.00 0.00 0.00 82 1015.8
20260904140500 81 209 2.0 3.0 0.00 0.00 0.00 83 1015.8
20260904140358 81 249 0.0 3.0 0.00 0.00 0.00 83 1015.8
20260904140258 81 230 2.0 3.0 0.00 0.00 0.00 83 1015.7
20260904140159 81 160 0.0 2.0 0.00 0.00 0.00 83 1015.6
20260904140059 81 277 1.0 2.0 0.00 0.00 0.00 83 1015.7
20260904140004 81 41 0.0 3.0 0.00 0.00 0.00 83 1015.7
20260904135858 81 266 0.0 3.0 0.00 0.00 0.00 83 1015.7
20260904135758 81 270 0.0 3.0 0.00 0.00 0.00 83 1015.7
20260904135501 81 190 0.0 3.0 0.00 0.00 0.00 82 1015.8
20260904135359 81 295 0.0 3.0 0.00 0.00 0.00 83 1015.8
20260904135301 81 153 0.0 3.0 0.00 0.00 0.00 82 1015.7
20260904135159 81 181 0.0 3.0 0.00 0.00 0.00 83 1015.8
20260904135058 81 263 3.0 3.0 0.00 0.00 0.00 83 1015.7
20260904135003 81 116 0.0 3.0 0.00 0.00 0.00 82 1015.8
20260904134859 81 179 0.0 3.0 0.00 0.00 0.00 83 1015.8
20260904134758 81 94 0.0 3.0 0.00 0.00 0.00 83 1015.8
20260904134500 81 135 0.0 4.0 0.00 0.00 0.00 83 1015.7
20260904134358 80 307 0.0 4.0 0.00 0.00 0.00 84 1015.7
20260904134258 80 19 0.0 4.0 0.00 0.00 0.00 84 1015.8
20260904134159 80 4 2.0 4.0 0.00 0.00 0.00 84 1015.8
20260904134058 80 146 0.0 4.0 0.00 0.00 0.00 84 1015.8
20260904133658 80 124 2.0 4.0 0.00 0.00 0.00 84 1015.8
20260904133558 80 265 0.0 3.0 0.00 0.00 0.00 85 1015.7
20260904133500 80 287 0.0 3.0 0.00 0.00 0.00 85 1015.7
20260904133358 79 300 3.0 3.0 0.00 0.00 0.00 85 1015.6
20260904133258 79 295 0.0 3.0 0.00 0.00 0.00 85 1015.7
20260904133159 79 233 0.0 3.0 0.00 0.00 0.00 84 1015.6
20260904133058 79 233 0.0 3.0 0.00 0.00 0.00 84 1015.7
20260904132858 79 303 2.0 3.0 0.00 0.00 0.00 84 1015.7
20260904132759 79 160 3.0 3.0 0.00 0.00 0.00 84 1015.7
20260904132658 79 288 0.0 3.0 0.00 0.00 0.00 84 1015.7
20260904132501 79 251 0.0 3.0 0.00 0.00 0.00 84 1015.6
20260904132358 79 179 0.0 4.0 0.00 0.00 0.00 84 1015.7
20260904132259 80 160 1.0 4.0 0.00 0.00 0.00 84 1015.6
20260904132100 80 167 0.0 4.0 0.00 0.00 0.00 85 1015.6
20260904132003 80 273 1.0 4.0 0.00 0.00 0.00 85 1015.6
20260904131859 79 246 0.0 4.0 0.00 0.00 0.00 85 1015.7
20260904131758 79 354 2.0 4.0 0.00 0.00 0.00 85 1015.6
20260904131658 79 345 0.0 4.0 0.00 0.00 0.00 85 1015.6
20260904131559 79 245 0.0 4.0 0.00 0.00 0.00 85 1015.6
20260904131500 79 155 0.0 4.0 0.00 0.00 0.00 85 1015.7
20260904131358 79 116 0.0 4.0 0.00 0.00 0.00 85 1015.6
20260904131259 79 256 0.0 4.0 0.00 0.00 0.00 85 1015.6
20260904131158 79 214 2.0 4.0 0.00 0.00 0.00 85 1015.7
20260904131058 79 160 3.0 3.0 0.00 0.00 0.00 85 1015.7
20260904131002 79 275 0.0 3.0 0.00 0.00 0.00 86 1015.7
20260904130858 79 214 0.0 3.0 0.00 0.00 0.00 85 1015.7
20260904130800 79 214 0.0 3.0 0.00 0.00 0.00 86 1015.7
20260904130559 79 167 0.0 3.0 0.00 0.00 0.00 86 1015.6
20260904130501 79 239 3.0 3.0 0.00 0.00 0.00 86 1015.6
20260904130358 79 163 0.0 3.0 0.00 0.00 0.00 86 1015.6
20260904130258 79 296 2.0 3.0 0.00 0.00 0.00 86 1015.7
20260904130159 79 71 2.0 3.0 0.00 0.00 0.00 85 1015.6
20260904130059 79 165 0.0 3.0 0.00 0.00 0.00 86 1015.6
20260904130003 79 167 0.0 3.0 0.00 0.00 0.00 86 1015.7
20260904125857 79 243 1.0 3.0 0.00 0.00 0.00 86 1015.5
20260904125758 79 176 0.0 3.0 0.00 0.00 0.00 86 1015.6
20260904125657 79 300 1.0 3.0 0.00 0.00 0.00 86 1015.6
20260904125356 79 295 0.0 3.0 0.00 0.00 0.00 86 1015.6
20260904125257 79 312 0.0 3.0 0.00 0.00 0.00 86 1015.5
20260904125158 79 293 0.0 3.0 0.00 0.00 0.00 86 1015.5
20260904125058 79 134 0.0 4.0 0.00 0.00 0.00 86 1015.5
20260904124857 79 283 0.0 4.0 0.00 0.00 0.00 87 1015.5
20260904124757 79 169 0.0 4.0 0.00 0.00 0.00 87 1015.5
20260904124658 79 188 0.0 4.0 0.00 0.00 0.00 87 1015.5
20260904124558 79 248 0.0 4.0 0.00 0.00 0.00 87 1015.5
20260904124459 79 295 1.0 4.0 0.00 0.00 0.00 87 1015.4
20260904124357 78 345 1.0 4.0 0.00 0.00 0.00 87 1015.4
20260904124257 78 158 2.0 4.0 0.00 0.00 0.00 87 1015.4
20260904124157 78 217 1.0 4.0 0.00 0.00 0.00 87 1015.4
20260904124057 78 270 2.0 3.0 0.00 0.00 0.00 87 1015.3
20260904124000 78 287 0.0 3.0 0.00 0.00 0.00 87 1015.3
20260904123857 78 288 3.0 3.0 0.00 0.00 0.00 87 1015.2
20260904123757 78 296 1.0 3.0 0.00 0.00 0.00 87 1015.3
20260904123657 78 59 0.0 3.0 0.00 0.00 0.00 88 1015.3
20260904123458 78 309 0.0 3.0 0.00 0.00 0.00 88 1015.3
20260904123357 78 303 0.0 3.0 0.00 0.00 0.00 88 1015.3
20260904123158 78 302 0.0 4.0 0.00 0.00 0.00 88 1015.3
20260904123057 78 360 1.0 4.0 0.00 0.00 0.00 88 1015.4
20260904122959 78 295 0.0 4.0 0.00 0.00 0.00 88 1015.3
20260904122858 78 336 2.0 4.0 0.00 0.00 0.00 88 1015.3
20260904122758 78 326 3.0 4.0 0.00 0.00 0.00 88 1015.2
20260904122657 78 309 3.0 4.0 0.00 0.00 0.00 88 1015.2
20260904122557 78 360 0.0 4.0 0.00 0.00 0.00 88 1015.2
20260904122356 78 244 1.0 4.0 0.00 0.00 0.00 88 1015.2
20260904122157 78 328 3.0 4.0 0.00 0.00 0.00 88 1015.2
20260904122058 78 302 0.0 4.0 0.00 0.00 0.00 88 1015.3
20260904121859 78 338 2.0 4.0 0.00 0.00 0.00 88 1015.3
20260904121758 78 307 2.0 4.0 0.00 0.00 0.00 88 1015.4
20260904121557 78 25 3.0 4.0 0.00 0.00 0.00 88 1015.4
20260904121459 78 25 0.0 4.0 0.00 0.00 0.00 88 1015.3
20260904121357 78 360 1.0 4.0 0.00 0.00 0.00 88 1015.2
20260904121258 78 125 2.0 4.0 0.00 0.00 0.00 88 1015.3
20260904121158 78 300 0.0 4.0 0.00 0.00 0.00 88 1015.3
20260904121057 77 8 3.0 4.0 0.00 0.00 0.00 88 1015.2
20260904121000 77 323 0.0 4.0 0.00 0.00 0.00 88 1015.3
20260904120857 77 114 3.0 3.0 0.00 0.00 0.00 88 1015.2
20260904120657 77 5 2.0 3.0 0.00 0.00 0.00 88 1015.2
20260904120558 77 310 0.0 3.0 0.00 0.00 0.00 88 1015.2
20260904120357 77 342 2.0 4.0 0.00 0.00 0.00 88 1015.2
20260904120257 77 333 2.0 4.0 0.00 0.00 0.00 88 1015.3
20260904120058 77 319 2.0 4.0 0.00 0.00 0.00 88 1015.3
20260904120003 77 342 0.0 4.0 0.00 0.00 0.00 88 1015.3
20260904115858 77 55 0.0 4.0 0.00 0.00 0.00 88 1015.4
20260904115658 77 317 2.0 4.0 0.00 0.00 0.00 88 1015.4
20260904115558 77 300 2.0 4.0 0.00 0.00 0.00 88 1015.3
20260904115358 77 342 2.0 4.0 0.00 0.00 0.00 88 1015.3
20260904115259 77 8 3.0 4.0 0.00 0.00 0.00 88 1015.3
20260904115157 77 302 0.0 4.0 0.00 0.00 0.00 88 1015.3
20260904115058 77 33 2.0 4.0 0.00 0.00 0.00 88 1015.3
20260904115002 77 20 0.0 3.0 0.00 0.00 0.00 88 1015.2
20260904114900 77 342 3.0 3.0 0.00 0.00 0.00 88 1015.1
20260904114759 77 68 0.0 3.0 0.00 0.00 0.00 88 1015.1
20260904114658 77 1 0.0 3.0 0.00 0.00 0.00 88 1015.1
20260904114558 77 57 0.0 3.0 0.00 0.00 0.00 88 1015.2
20260904114459 77 331 1.0 3.0 0.00 0.00 0.00 88 1015.1
20260904114357 77 337 2.0 3.0 0.00 0.00 0.00 88 1015.0
20260904114259 77 319 0.0 3.0 0.00 0.00 0.00 88 1015.0
20260904114158 77 319 2.0 4.0 0.00 0.00 0.00 88 1014.9
20260904114000 77 335 2.0 4.0 0.00 0.00 0.00 88 1014.9
20260904113759 77 331 2.0 4.0 0.00 0.00 0.00 88 1014.8
20260904113559 77 109 0.0 4.0 0.00 0.00 0.00 88 1014.8
20260904113459 77 316 1.0 4.0 0.00 0.00 0.00 88 1014.9
20260904113358 77 316 2.0 4.0 0.00 0.00 0.00 88 1014.8
20260904113258 77 326 0.0 4.0 0.00 0.00 0.00 88 1014.8
20260904113158 77 340 1.0 4.0 0.00 0.00 0.00 88 1014.7
20260904112858 77 299 0.0 4.0 0.00 0.00 0.00 88 1014.8
20260904112758 77 321 2.0 4.0 0.00 0.00 0.00 88 1014.8
20260904112659 77 330 1.0 4.0 0.00 0.00 0.00 88 1014.7
20260904112600 77 305 2.0 4.0 0.00 0.00 0.00 88 1014.7
20260904112358 77 343 2.0 4.0 0.00 0.00 0.00 88 1014.8
20260904112300 77 321 2.0 4.0 0.00 0.00 0.00 88 1014.8
20260904112058 77 356 3.0 4.0 0.00 0.00 0.00 88 1014.7
20260904112003 77 358 3.0 4.0 0.00 0.00 0.00 88 1014.7
20260904111859 77 356 3.0 4.0 0.00 0.00 0.00 88 1014.6
20260904111759 77 359 1.0 4.0 0.00 0.00 0.00 88 1014.7
20260904111700 77 296 1.0 4.0 0.00 0.00 0.00 88 1014.7
20260904111559 77 41 0.0 4.0 0.00 0.00 0.00 88 1014.7
20260904111502 77 342 1.0 4.0 0.00 0.00 0.00 88 1014.7
20260904111359 77 335 1.0 4.0 0.00 0.00 0.00 88 1014.7
20260904111259 77 113 4.0 4.0 0.00 0.00 0.00 88 1014.7
20260904111158 77 8 1.0 3.0 0.00 0.00 0.00 88 1014.7
20260904111058 77 296 0.0 3.0 0.00 0.00 0.00 88 1014.7
20260904111002 77 316 3.0 4.0 0.00 0.00 0.00 88 1014.6
20260904110858 77 335 1.0 4.0 0.00 0.00 0.00 88 1014.7
20260904110558 77 330 0.0 4.0 0.00 0.00 0.00 88 1014.6
20260904110500 77 270 0.0 4.0 0.00 0.00 0.00 88 1014.6
20260904110358 77 349 1.0 4.0 0.00 0.00 0.00 88 1014.7
20260904110259 77 340 2.0 4.0 0.00 0.00 0.00 88 1014.7
20260904110158 77 358 2.0 4.0 0.00 0.00 0.00 88 1014.7
20260904110058 77 1 3.0 4.0 0.00 0.00 0.00 88 1014.7
20260904105959 77 316 0.0 4.0 0.00 0.00 0.00 88 1014.6
20260904105857 77 336 2.0 4.0 0.00 0.00 0.00 88 1014.6
20260904105757 77 309 0.0 4.0 0.00 0.00 0.00 88 1014.6
20260904105558 77 342 1.0 4.0 0.00 0.00 0.00 88 1014.6
20260904105500 77 296 3.0 4.0 0.00 0.00 0.00 88 1014.6
20260904105357 77 132 0.0 3.0 0.00 0.00 0.00 88 1014.6
20260904105257 77 184 0.0 3.0 0.00 0.00 0.00 88 1014.6
20260904105158 77 157 2.0 3.0 0.00 0.00 0.00 88 1014.6
20260904105057 77 17 0.0 4.0 0.00 0.00 0.00 88 1014.6
20260904105000 77 316 0.0 4.0 0.00 0.00 0.00 88 1014.6
20260904104857 77 307 2.0 4.0 0.00 0.00 0.00 88 1014.6
20260904104757 77 44 1.0 4.0 0.00 0.00 0.00 88 1014.6
20260904104657 77 354 1.0 4.0 0.00 0.00 0.00 88 1014.6
20260904104458 77 58 2.0 4.0 0.00 0.00 0.00 88 1014.6
20260904104157 77 338 1.0 4.0 0.00 0.00 0.00 88 1014.7
20260904104057 77 302 2.0 4.0 0.00 0.00 0.00 88 1014.7
20260904104000 77 132 0.0 4.0 0.00 0.00 0.00 88 1014.7
20260904103857 77 337 1.0 4.0 0.00 0.00 0.00 88 1014.7
20260904103757 77 34 1.0 4.0 0.00 0.00 0.00 88 1014.8
20260904103657 77 333 2.0 4.0 0.00 0.00 0.00 88 1014.8
20260904103558 77 321 2.0 4.0 0.00 0.00 0.00 88 1014.7
20260904103459 77 321 2.0 4.0 0.00 0.00 0.00 88 1014.8
20260904103357 77 330 2.0 4.0 0.00 0.00 0.00 88 1014.6
20260904103257 77 342 0.0 4.0 0.00 0.00 0.00 88 1014.6
20260904103057 77 10 0.0 3.0 0.00 0.00 0.00 87 1014.7
20260904103000 77 338 2.0 3.0 0.00 0.00 0.00 87 1014.6
20260904102858 77 344 2.0 3.0 0.00 0.00 0.00 87 1014.7
20260904102756 77 186 1.0 3.0 0.00 0.00 0.00 87 1014.7
20260904102657 77 143 1.0 3.0 0.00 0.00 0.00 87 1014.7
20260904102557 77 345 2.0 3.0 0.00 0.00 0.00 87 1014.7
20260904102459 77 342 2.0 3.0 0.00 0.00 0.00 87 1014.7
20260904102358 77 329 2.0 3.0 0.00 0.00 0.00 87 1014.6
20260904102258 77 323 2.0 3.0 0.00 0.00 0.00 87 1014.6
20260904102157 77 290 2.0 3.0 0.00 0.00 0.00 87 1014.5
20260904102000 77 335 1.0 3.0 0.00 0.00 0.00 87 1014.6
20260904101857 77 333 2.0 3.0 0.00 0.00 0.00 87 1014.5
20260904101757 77 316 2.0 3.0 0.00 0.00 0.00 87 1014.5
20260904101657 77 345 2.0 3.0 0.00 0.00 0.00 87 1014.5
20260904101557 77 319 1.0 3.0 0.00 0.00 0.00 87 1014.5
20260904101500 77 326 0.0 3.0 0.00 0.00 0.00 87 1014.5
20260904101257 77 344 2.0 3.0 0.00 0.00 0.00 87 1014.5
20260904101057 77 321 2.0 3.0 0.00 0.00 0.00 87 1014.5
20260904101000 77 307 0.0 3.0 0.00 0.00 0.00 87 1014.4
20260904100858 77 309 2.0 3.0 0.00 0.00 0.00 87 1014.5
20260904100658 77 349 2.0 3.0 0.00 0.00 0.00 87 1014.4
20260904100557 77 321 3.0 3.0 0.00 0.00 0.00 87 1014.4
20260904100458 77 316 2.0 3.0 0.00 0.00 0.00 87 1014.4
20260904100358 77 328 2.0 3.0 0.00 0.00 0.00 87 1014.4
20260904100258 77 349 2.0 3.0 0.00 0.00 0.00 87 1014.4
20260904100157 77 326 2.0 3.0 0.00 0.00 0.00 87 1014.4
20260904100003 77 314 3.0 3.0 0.00 0.00 0.00 87 1014.4
20260904095858 77 321 1.0 3.0 0.00 0.00 0.00 87 1014.4
20260904095657 77 273 0.0 3.0 0.00 0.00 0.00 87 1014.4
20260904095557 77 281 1.0 3.0 0.00 0.00 0.00 87 1014.4
20260904095458 77 324 2.0 4.0 0.00 0.00 0.00 87 1014.4
20260904095358 77 323 2.0 4.0 0.00 0.00 0.00 87 1014.4
20260904095257 77 314 3.0 4.0 0.00 0.00 0.00 87 1014.4
20260904095157 77 342 1.0 4.0 0.00 0.00 0.00 87 1014.3
20260904095058 77 336 2.0 4.0 0.00 0.00 0.00 87 1014.4
20260904094857 77 335 1.0 4.0 0.00 0.00 0.00 87 1014.4
20260904094757 77 356 3.0 4.0 0.00 0.00 0.00 87 1014.4
20260904094557 77 342 2.0 3.0 0.00 0.00 0.00 87 1014.5
20260904094459 77 352 2.0 3.0 0.00 0.00 0.00 87 1014.5
20260904094357 77 328 2.0 3.0 0.00 0.00 0.00 87 1014.6
20260904094257 77 335 2.0 3.0 0.00 0.00 0.00 87 1014.6
20260904094158 77 323 2.0 3.0 0.00 0.00 0.00 87 1014.6
20260904094057 77 347 1.0 3.0 0.00 0.00 0.00 87 1014.5
20260904094000 77 331 3.0 3.0 0.00 0.00 0.00 87 1014.6
20260904093857 77 309 2.0 3.0 0.00 0.00 0.00 87 1014.5
20260904093757 77 329 2.0 3.0 0.00 0.00 0.00 87 1014.5
20260904093658 77 342 2.0 3.0 0.00 0.00 0.00 87 1014.5
20260904093357 77 303 1.0 3.0 0.00 0.00 0.00 87 1014.5
20260904093256 77 300 0.0 3.0 0.00 0.00 0.00 87 1014.5
20260904093157 77 310 0.0 3.0 0.00 0.00 0.00 87 1014.5
20260904092959 77 349 2.0 3.0 0.00 0.00 0.00 87 1014.5
20260904092858 77 316 0.0 3.0 0.00 0.00 0.00 87 1014.5
20260904092757 77 356 2.0 3.0 0.00 0.00 0.00 87 1014.5
20260904092557 77 330 1.0 3.0 0.00 0.00 0.00 87 1014.5
20260904092458 77 330 2.0 3.0 0.00 0.00 0.00 87 1014.4
20260904092357 77 310 1.0 3.0 0.00 0.00 0.00 87 1014.5
20260904092257 77 349 3.0 3.0 0.00 0.00 0.00 87 1014.4
20260904092156 77 303 2.0 3.0 0.00 0.00 0.00 87 1014.4
20260904092057 77 340 2.0 3.0 0.00 0.00 0.00 87 1014.5
20260904091858 77 316 1.0 3.0 0.00 0.00 0.00 87 1014.4
20260904091758 77 333 3.0 3.0 0.00 0.00 0.00 87 1014.5
20260904091657 77 321 2.0 3.0 0.00 0.00 0.00 87 1014.4
20260904091556 77 328 2.0 3.0 0.00 0.00 0.00 87 1014.4
20260904091458 78 321 2.0 3.0 0.00 0.00 0.00 87 1014.4
20260904091358 78 321 2.0 3.0 0.00 0.00 0.00 87 1014.4
20260904091258 78 298 0.0 3.0 0.00 0.00 0.00 87 1014.4
20260904091157 77 282 2.0 3.0 0.00 0.00 0.00 87 1014.4
20260904091057 77 319 0.0 3.0 0.00 0.00 0.00 87 1014.3
20260904090857 77 323 1.0 3.0 0.00 0.00 0.00 86 1014.3
20260904090758 77 264 2.0 3.0 0.00 0.00 0.00 86 1014.2
20260904090657 78 286 3.0 3.0 0.00 0.00 0.00 86 1014.2
20260904090558 78 295 2.0 3.0 0.00 0.00 0.00 86 1014.2
20260904090458 78 314 2.0 3.0 0.00 0.00 0.00 86 1014.1
20260904090356 78 309 2.0 3.0 0.00 0.00 0.00 86 1014.2
20260904090257 78 316 2.0 3.0 0.00 0.00 0.00 86 1014.2
20260904090057 78 333 2.0 3.0 0.00 0.00 0.00 86 1014.2
20260904090002 77 310 2.0 3.0 0.00 0.00 0.00 86 1014.2
20260904085857 77 330 2.0 3.0 0.00 0.00 0.00 86 1014.2
20260904085757 78 333 0.0 2.0 0.00 0.00 0.00 86 1014.1
20260904085657 78 340 1.0 2.0 0.00 0.00 0.00 86 1014.2
20260904085557 78 340 2.0 2.0 0.00 0.00 0.00 86 1014.2
20260904085458 78 342 1.0 2.0 0.00 0.00 0.00 86 1014.2
20260904085357 78 326 1.0 2.0 0.00 0.00 0.00 86 1014.3
20260904085257 78 309 1.0 2.0 0.00 0.00 0.00 86 1014.3
20260904085158 78 326 0.0 2.0 0.00 0.00 0.00 86 1014.3
20260904085000 78 340 2.0 2.0 0.00 0.00 0.00 86 1014.4
20260904084858 78 319 2.0 3.0 0.00 0.00 0.00 86 1014.4
20260904084758 78 335 1.0 3.0 0.00 0.00 0.00 86 1014.3
20260904084657 78 310 2.0 3.0 0.00 0.00 0.00 86 1014.4
20260904084558 78 333 0.0 3.0 0.00 0.00 0.00 86 1014.4
20260904084459 78 330 1.0 3.0 0.00 0.00 0.00 86 1014.3
20260904084357 78 329 2.0 3.0 0.00 0.00 0.00 86 1014.3
20260904084257 78 326 1.0 3.0 0.00 0.00 0.00 86 1014.2
20260904084056 78 324 2.0 3.0 0.00 0.00 0.00 86 1014.3
20260904084000 78 338 2.0 3.0 0.00 0.00 0.00 86 1014.2
20260904083857 78 298 2.0 3.0 0.00 0.00 0.00 86 1014.2
20260904083757 78 321 2.0 3.0 0.00 0.00 0.00 86 1014.2
20260904083658 78 316 1.0 3.0 0.00 0.00 0.00 86 1014.2
20260904083557 78 285 3.0 3.0 0.00 0.00 0.00 86 1014.2
20260904083459 78 278 3.0 3.0 0.00 0.00 0.00 86 1014.3
20260904083358 78 286 2.0 3.0 0.00 0.00 0.00 86 1014.2
20260904083257 78 303 1.0 3.0 0.00 0.00 0.00 86 1014.2
20260904083157 78 296 0.0 3.0 0.00 0.00 0.00 86 1014.2
20260904083058 78 309 1.0 3.0 0.00 0.00 0.00 86 1014.1
20260904083000 78 331 2.0 3.0 0.00 0.00 0.00 86 1014.2
20260904082857 78 328 2.0 3.0 0.00 0.00 0.00 86 1014.2
20260904082758 78 317 2.0 3.0 0.00 0.00 0.00 86 1014.1
20260904082657 78 314 2.0 3.0 0.00 0.00 0.00 86 1014.1
20260904082557 78 311 2.0 3.0 0.00 0.00 0.00 86 1014.1
20260904082457 78 314 1.0 3.0 0.00 0.00 0.00 86 1014.1
20260904082357 78 314 2.0 3.0 0.00 0.00 0.00 86 1013.9
20260904082257 78 297 2.0 3.0 0.00 0.00 0.00 86 1014.0
20260904081858 78 316 2.0 2.0 0.00 0.00 0.00 86 1013.9
20260904081758 78 319 2.0 2.0 0.00 0.00 0.00 86 1014.0
20260904081658 78 331 2.0 2.0 0.00 0.00 0.00 86 1014.0
20260904081557 78 321 0.0 2.0 0.00 0.00 0.00 86 1014.0
20260904081459 78 316 2.0 2.0 0.00 0.00 0.00 86 1014.0
20260904081358 78 319 2.0 2.0 0.00 0.00 0.00 86 1014.0
20260904081257 78 314 2.0 2.0 0.00 0.00 0.00 86 1014.0
20260904081057 78 303 0.0 2.0 0.00 0.00 0.00 86 1014.0
20260904080857 78 321 0.0 2.0 0.00 0.00 0.00 86 1014.0
20260904080756 78 314 1.0 2.0 0.00 0.00 0.00 86 1014.1
20260904080657 78 302 1.0 2.0 0.00 0.00 0.00 86 1014.1
20260904080557 78 298 0.0 2.0 0.00 0.00 0.00 86 1014.1
20260904080458 78 293 2.0 2.0 0.00 0.00 0.00 85 1014.1
20260904080358 78 287 0.0 2.0 0.00 0.00 0.00 86 1014.2
20260904080258 78 314 2.0 2.0 0.00 0.00 0.00 85 1014.1
20260904080157 78 309 2.0 2.0 0.00 0.00 0.00 85 1014.1
20260904080057 78 360 2.0 2.0 0.00 0.00 0.00 85 1014.1
20260904080002 78 314 2.0 2.0 0.00 0.00 0.00 85 1014.1
20260904075857 78 300 1.0 2.0 0.00 0.00 0.00 85 1014.1
20260904075757 78 301 0.0 2.0 0.00 0.00 0.00 85 1014.1
20260904075657 78 311 0.0 2.0 0.00 0.00 0.00 85 1014.1
20260904075557 78 316 0.0 2.0 0.00 0.00 0.00 85 1014.1
20260904075459 78 304 0.0 2.0 0.00 0.00 0.00 85 1014.1
20260904075357 78 323 0.0 2.0 0.00 0.00 0.00 85 1014.1
20260904075257 78 307 2.0 2.0 0.00 0.00 0.00 85 1014.0
20260904075157 78 319 1.0 3.0 0.00 0.00 0.00 85 1014.1
20260904075057 78 312 2.0 3.0 0.00 0.00 0.00 85 1014.1
20260904075000 78 316 2.0 3.0 0.00 0.00 0.00 85 1014.1
20260904074658 78 302 2.0 3.0 0.00 0.00 0.00 85 1014.1
20260904074557 78 307 2.0 3.0 0.00 0.00 0.00 85 1014.1
20260904074500 78 312 2.0 3.0 0.00 0.00 0.00 85 1014.1
20260904074357 78 333 0.0 3.0 0.00 0.00 0.00 85 1014.1
20260904074258 78 300 2.0 3.0 0.00 0.00 0.00 85 1014.0
20260904074157 79 319 2.0 3.0 0.00 0.00 0.00 85 1014.1
20260904074057 78 314 2.0 3.0 0.00 0.00 0.00 85 1014.0
20260904073758 79 310 2.0 3.0 0.00 0.00 0.00 85 1014.1
20260904073557 79 314 2.0 3.0 0.00 0.00 0.00 84 1014.0
20260904073458 79 308 2.0 3.0 0.00 0.00 0.00 85 1014.1
20260904073258 79 307 2.0 3.0 0.00 0.00 0.00 84 1014.0
20260904073157 79 312 2.0 3.0 0.00 0.00 0.00 84 1014.0
20260904073058 79 302 2.0 3.0 0.00 0.00 0.00 84 1014.0
20260904072857 79 321 2.0 3.0 0.00 0.00 0.00 84 1014.1
20260904072757 79 316 2.0 3.0 0.00 0.00 0.00 84 1014.1
20260904072557 79 304 2.0 3.0 0.00 0.00 0.00 84 1014.1
20260904072458 79 314 3.0 3.0 0.00 0.00 0.00 85 1014.0
20260904072357 79 319 2.0 3.0 0.00 0.00 0.00 85 1014.0
20260904072256 79 307 2.0 3.0 0.00 0.00 0.00 84 1014.0
20260904072158 79 312 2.0 2.0 0.00 0.00 0.00 84 1014.0
20260904072058 79 310 2.0 2.0 0.00 0.00 0.00 84 1014.1
20260904072000 79 302 2.0 3.0 0.00 0.00 0.00 84 1014.1
20260904071857 79 304 2.0 3.0 0.00 0.00 0.00 84 1014.1
20260904071757 79 307 2.0 3.0 0.00 0.00 0.00 84 1014.2
20260904071658 79 301 1.0 3.0 0.00 0.00 0.00 84 1014.2
20260904071458 79 314 0.0 3.0 0.00 0.00 0.00 84 1014.2
20260904071358 79 319 1.0 3.0 0.00 0.00 0.00 84 1014.2
20260904071257 79 338 2.0 3.0 0.00 0.00 0.00 84 1014.2
20260904071058 79 321 2.0 3.0 0.00 0.00 0.00 84 1014.2
20260904071000 79 336 1.0 3.0 0.00 0.00 0.00 84 1014.2
20260904070856 79 319 2.0 3.0 0.00 0.00 0.00 84 1014.3
20260904070757 79 331 2.0 3.0 0.00 0.00 0.00 84 1014.2
20260904070657 79 326 3.0 3.0 0.00 0.00 0.00 84 1014.2
20260904070557 79 319 2.0 3.0 0.00 0.00 0.00 84 1014.2
20260904070459 79 307 3.0 3.0 0.00 0.00 0.00 84 1014.2
20260904070256 79 319 2.0 3.0 0.00 0.00 0.00 84 1014.2
20260904070057 79 310 2.0 3.0 0.00 0.00 0.00 84 1014.2
20260904070002 79 324 3.0 3.0 0.00 0.00 0.00 84 1014.2
20260904065756 79 288 2.0 3.0 0.00 0.00 0.00 84 1014.3
20260904065657 79 302 2.0 3.0 0.00 0.00 0.00 84 1014.3
20260904065559 79 323 2.0 3.0 0.00 0.00 0.00 84 1014.3
20260904065459 79 323 2.0 3.0 0.00 0.00 0.00 84 1014.3
20260904065257 79 329 2.0 3.0 0.00 0.00 0.00 84 1014.3
20260904065157 79 328 3.0 3.0 0.00 0.00 0.00 84 1014.3
20260904065057 79 326 3.0 3.0 0.00 0.00 0.00 84 1014.4
20260904064959 79 329 2.0 3.0 0.00 0.00 0.00 84 1014.4
20260904064857 79 328 2.0 3.0 0.00 0.00 0.00 84 1014.3
20260904064758 79 324 2.0 3.0 0.00 0.00 0.00 84 1014.4
20260904064659 79 309 2.0 3.0 0.00 0.00 0.00 84 1014.3
20260904064556 80 305 2.0 3.0 0.00 0.00 0.00 84 1014.4
20260904064459 80 321 2.0 3.0 0.00 0.00 0.00 84 1014.4
20260904064357 79 295 1.0 3.0 0.00 0.00 0.00 84 1014.4
20260904064258 79 311 2.0 3.0 0.00 0.00 0.00 84 1014.4
20260904064157 79 331 2.0 3.0 0.00 0.00 0.00 84 1014.5
20260904064057 79 309 2.0 3.0 0.00 0.00 0.00 84 1014.5
20260904064000 79 342 1.0 3.0 0.00 0.00 0.00 84 1014.5
20260904063857 79 307 1.0 3.0 0.00 0.00 0.00 84 1014.5
20260904063757 80 319 2.0 3.0 0.00 0.00 0.00 84 1014.5
20260904063658 80 331 3.0 3.0 0.00 0.00 0.00 84 1014.5
20260904063557 80 319 2.0 3.0 0.00 0.00 0.00 84 1014.4
20260904063458 80 314 3.0 3.0 0.00 0.00 0.00 84 1014.5
20260904063358 80 323 2.0 3.0 0.00 0.00 0.00 84 1014.4
20260904063258 79 324 2.0 3.0 0.00 0.00 0.00 84 1014.4
20260904063157 79 323 2.0 3.0 0.00 0.00 0.00 84 1014.4
20260904063057 79 319 3.0 3.0 0.00 0.00 0.00 84 1014.4
20260904062757 79 330 2.0 3.0 0.00 0.00 0.00 84 1014.4
20260904062657 79 330 2.0 3.0 0.00 0.00 0.00 84 1014.3
20260904062557 79 331 2.0 3.0 0.00 0.00 0.00 84 1014.4
20260904062458 79 344 2.0 3.0 0.00 0.00 0.00 84 1014.3
20260904062357 79 319 2.0 3.0 0.00 0.00 0.00 84 1014.3
20260904062056 79 301 3.0 3.0 0.00 0.00 0.00 84 1014.3
20260904062000 79 296 2.0 3.0 0.00 0.00 0.00 84 1014.3
20260904061857 79 324 2.0 3.0 0.00 0.00 0.00 84 1014.3
20260904061759 79 314 3.0 3.0 0.00 0.00 0.00 84 1014.3
20260904061658 79 293 2.0 3.0 0.00 0.00 0.00 84 1014.3
20260904061558 79 312 3.0 3.0 0.00 0.00 0.00 84 1014.3
20260904061458 79 316 2.0 3.0 0.00 0.00 0.00 84 1014.4
20260904061358 79 314 2.0 3.0 0.00 0.00 0.00 84 1014.4
20260904061257 79 307 2.0 3.0 0.00 0.00 0.00 84 1014.4
20260904061157 79 331 2.0 3.0 0.00 0.00 0.00 84 1014.4
20260904061057 79 340 0.0 3.0 0.00 0.00 0.00 84 1014.5
20260904061000 79 331 1.0 3.0 0.00 0.00 0.00 84 1014.5
20260904060857 79 330 2.0 3.0 0.00 0.00 0.00 84 1014.6
20260904060758 79 338 2.0 3.0 0.00 0.00 0.00 84 1014.6
20260904060658 79 333 2.0 3.0 0.00 0.00 0.00 84 1014.5
20260904060558 79 308 2.0 3.0 0.00 0.00 0.00 84 1014.6
20260904060458 79 317 2.0 3.0 0.00 0.00 0.00 84 1014.6
20260904060357 79 308 2.0 3.0 0.00 0.00 0.00 84 1014.5
20260904060257 79 314 2.0 3.0 0.00 0.00 0.00 84 1014.6
20260904060157 79 307 2.0 3.0 0.00 0.00 0.00 84 1014.6
20260904060057 79 321 2.0 3.0 0.00 0.00 0.00 84 1014.6
20260904060000 79 333 2.0 3.0 0.00 0.00 0.00 84 1014.6
20260904055857 79 335 2.0 3.0 0.00 0.00 0.00 84 1014.6
20260904055758 79 328 2.0 3.0 0.00 0.00 0.00 84 1014.6
20260904055556 79 312 1.0 3.0 0.00 0.00 0.00 84 1014.6
20260904055458 79 312 2.0 3.0 0.00 0.00 0.00 84 1014.6
20260904055357 79 319 2.0 3.0 0.00 0.00 0.00 84 1014.6
20260904055158 79 319 0.0 3.0 0.00 0.00 0.00 84 1014.7
20260904055000 79 340 1.0 3.0 0.00 0.00 0.00 84 1014.6
20260904054858 79 303 1.0 3.0 0.00 0.00 0.00 84 1014.7
20260904054757 79 329 2.0 3.0 0.00 0.00 0.00 84 1014.7
20260904054657 79 342 2.0 3.0 0.00 0.00 0.00 84 1014.7
20260904054556 79 324 0.0 3.0 0.00 0.00 0.00 84 1014.7
20260904054458 79 338 1.0 2.0 0.00 0.00 0.00 84 1014.7
20260904054357 79 302 0.0 2.0 0.00 0.00 0.00 84 1014.8
20260904054258 79 310 2.0 2.0 0.00 0.00 0.00 84 1014.9
20260904054157 79 326 2.0 2.0 0.00 0.00 0.00 84 1014.9
20260904053959 79 321 0.0 2.0 0.00 0.00 0.00 84 1015.0
20260904053856 79 309 0.0 2.0 0.00 0.00 0.00 84 1014.9
20260904053757 79 309 0.0 2.0 0.00 0.00 0.00 84 1014.9
20260904053658 79 307 2.0 2.0 0.00 0.00 0.00 84 1014.9
20260904053557 79 324 1.0 2.0 0.00 0.00 0.00 84 1014.8
20260904053459 79 309 0.0 2.0 0.00 0.00 0.00 84 1014.8
20260904053357 79 312 0.0 2.0 0.00 0.00 0.00 84 1014.8
20260904053157 79 295 1.0 2.0 0.00 0.00 0.00 84 1014.8
20260904053057 79 1 2.0 2.0 0.00 0.00 0.00 84 1014.8
20260904052959 79 352 2.0 2.0 0.00 0.00 0.00 84 1014.8
20260904052858 79 328 1.0 3.0 0.00 0.00 0.00 84 1014.9
20260904052757 79 330 1.0 3.0 0.00 0.00 0.00 83 1014.9
20260904052657 79 328 0.0 3.0 0.00 0.00 0.00 84 1014.8
20260904052557 79 290 2.0 3.0 0.00 0.00 0.00 83 1014.8
20260904052458 79 307 1.0 3.0 0.00 0.00 0.00 83 1014.9
20260904052357 79 338 2.0 3.0 0.00 0.00 0.00 83 1014.9
20260904052258 79 314 1.0 3.0 0.00 0.00 0.00 83 1014.9
20260904052157 79 322 2.0 3.0 0.00 0.00 0.00 83 1015.0
20260904052057 79 321 2.0 3.0 0.00 0.00 0.00 84 1015.0
20260904051959 79 316 0.0 2.0 0.00 0.00 0.00 84 1014.9
20260904051857 79 345 2.0 2.0 0.00 0.00 0.00 83 1015.1
20260904051757 79 319 1.0 2.0 0.00 0.00 0.00 83 1015.0
20260904051557 79 309 0.0 2.0 0.00 0.00 0.00 83 1015.0
20260904051458 79 312 0.0 2.0 0.00 0.00 0.00 83 1014.9
20260904051359 79 338 0.0 2.0 0.00 0.00 0.00 83 1014.9
20260904051257 80 331 2.0 2.0 0.00 0.00 0.00 83 1015.2
20260904051158 79 317 2.0 2.0 0.00 0.00 0.00 83 1015.0
20260904051056 80 317 2.0 2.0 0.00 0.00 0.00 83 1015.1
20260904051000 80 296 0.0 2.0 0.00 0.00 0.00 83 1015.2
20260904050858 80 296 0.0 2.0 0.00 0.00 0.00 83 1015.1
20260904050757 80 311 0.0 3.0 0.00 0.00 0.00 83 1015.1
20260904050657 80 294 1.0 3.0 0.00 0.00 0.00 83 1015.1
20260904050557 80 296 0.0 3.0 0.00 0.00 0.00 83 1015.1
20260904050458 80 323 2.0 3.0 0.00 0.00 0.00 83 1015.0
20260904050357 80 304 0.0 3.0 0.00 0.00 0.00 82 1015.0
20260904050257 80 274 0.0 3.0 0.00 0.00 0.00 82 1015.0
20260904050156 80 264 0.0 3.0 0.00 0.00 0.00 82 1015.0
20260904050003 80 333 0.0 3.0 0.00 0.00 0.00 82 1015.0
20260904045901 80 321 2.0 2.0 0.00 0.00 0.00 82 1015.0
20260904045800 80 312 1.0 2.0 0.00 0.00 0.00 82 1014.9
20260904045700 80 323 0.0 2.0 0.00 0.00 0.00 82 1015.0
20260904045600 80 285 0.0 2.0 0.00 0.00 0.00 82 1014.9
20260904045503 80 326 2.0 3.0 0.00 0.00 0.00 81 1015.0
20260904045300 80 270 0.0 3.0 0.00 0.00 0.00 81 1014.9
20260904045100 80 270 0.0 3.0 0.00 0.00 0.00 81 1014.9
20260904045003 80 280 0.0 3.0 0.00 0.00 0.00 81 1015.0
20260904044859 81 280 0.0 3.0 0.00 0.00 0.00 81 1014.8
20260904044659 81 307 2.0 3.0 0.00 0.00 0.00 80 1014.9
20260904044600 81 307 2.0 3.0 0.00 0.00 0.00 80 1014.9
20260904044503 81 301 2.0 3.0 0.00 0.00 0.00 80 1014.9
20260904044100 81 303 2.0 3.0 0.00 0.00 0.00 79 1014.9
20260904044003 81 299 2.0 3.0 0.00 0.00 0.00 79 1015.0
20260904043900 81 300 2.0 3.0 0.00 0.00 0.00 79 1015.0
20260904043701 81 276 2.0 3.0 0.00 0.00 0.00 79 1015.0
20260904043559 81 309 0.0 3.0 0.00 0.00 0.00 79 1015.0
20260904043502 81 275 0.0 3.0 0.00 0.00 0.00 79 1015.0
20260904043401 81 321 0.0 3.0 0.00 0.00 0.00 79 1015.0
20260904043301 81 322 1.0 3.0 0.00 0.00 0.00 79 1015.0
20260904043100 81 302 2.0 2.0 0.00 0.00 0.00 79 1015.1
20260904042900 81 312 0.0 2.0 0.00 0.00 0.00 78 1015.1
20260904042800 81 312 0.0 2.0 0.00 0.00 0.00 78 1015.1
20260904042659 81 314 1.0 2.0 0.00 0.00 0.00 78 1015.1
20260904042601 81 316 0.0 3.0 0.00 0.00 0.00 78 1015.1
20260904042503 81 314 1.0 3.0 0.00 0.00 0.00 79 1015.1
20260904042401 81 308 2.0 3.0 0.00 0.00 0.00 79 1015.1
20260904042300 81 293 2.0 3.0 0.00 0.00 0.00 78 1015.2
20260904042201 81 300 2.0 3.0 0.00 0.00 0.00 79 1015.2
20260904042101 81 295 2.0 3.0 0.00 0.00 0.00 79 1015.2
20260904042003 81 293 0.0 3.0 0.00 0.00 0.00 78 1015.1
20260904041900 81 303 0.0 3.0 0.00 0.00 0.00 78 1015.1
20260904041800 81 293 2.0 3.0 0.00 0.00 0.00 78 1015.0
20260904041700 81 270 0.0 3.0 0.00 0.00 0.00 78 1015.1
20260904041601 81 286 1.0 3.0 0.00 0.00 0.00 78 1015.1
20260904041504 81 330 2.0 3.0 0.00 0.00 0.00 78 1015.1
20260904041400 81 307 0.0 3.0 0.00 0.00 0.00 78 1015.1
20260904041259 81 277 0.0 3.0 0.00 0.00 0.00 78 1015.1
20260904041003 81 314 0.0 3.0 0.00 0.00 0.00 78 1015.1
20260904040900 81 321 1.0 3.0 0.00 0.00 0.00 79 1015.2
20260904040800 81 307 2.0 3.0 0.00 0.00 0.00 78 1015.1
20260904040700 81 309 2.0 3.0 0.00 0.00 0.00 78 1015.2
20260904040600 81 317 2.0 3.0 0.00 0.00 0.00 78 1015.2
20260904040503 81 300 2.0 3.0 0.00 0.00 0.00 79 1015.1
20260904040401 81 316 2.0 655.0 3.86 0.40 0.00 78
20260904040301 81 300 2.0 3.0 0.00 0.00 0.00 78 1015.2
20260904040200 81 310 2.0 2.0 0.00 0.00 0.00 78 1015.1
20260904040100 81 317 2.0 2.0 0.00 0.00 0.00 78 1015.2
20260904040003 81 321 2.0 3.0 0.00 0.00 0.00 78 1015.2
20260904035759 81 326 1.0 3.0 0.00 0.00 0.00 78 1015.2
20260904035700 81 300 1.0 3.0 0.00 0.00 0.00 78 1015.2
20260904035502 81 300 1.0 3.0 0.00 0.00 0.00 78 1015.1
20260904035359 81 276 0.0 3.0 0.00 0.00 0.00 78 1015.0
20260904035259 81 285 1.0 3.0 0.00 0.00 0.00 78 1015.0
20260904035159 81 301 0.0 3.0 0.00 0.00 0.00 78 1015.0
20260904035059 81 295 1.0 3.0 0.00 0.00 0.00 78 1015.1
20260904035002 81 289 1.0 3.0 0.00 0.00 0.00 78 1015.0
20260904034859 81 300 2.0 3.0 0.00 0.00 0.00 78 1015.0
20260904034758 81 293 2.0 3.0 0.00 0.00 0.00 78 1015.0
20260904034658 81 277 0.0 3.0 0.00 0.00 0.00 78 1015.0
20260904034559 81 283 1.0 3.0 0.00 0.00 0.00 78 1015.0
20260904034500 81 300 3.0 3.0 0.00 0.00 0.00 77 1015.0
20260904034359 81 293 2.0 3.0 0.00 0.00 0.00 77 1015.0
20260904034300 81 285 2.0 3.0 0.00 0.00 0.00 77 1015.0
20260904034059 81 303 1.0 3.0 0.00 0.00 0.00 77 1015.1
20260904034003 82 295 0.0 3.0 0.00 0.00 0.00 77 1015.1
20260904033859 82 268 1.0 3.0 0.00 0.00 0.00 77 1015.1
20260904033759 82 296 2.0 3.0 0.00 0.00 0.00 77 1015.1
20260904033701 82 293 2.0 3.0 0.00 0.00 0.00 77 1015.1
20260904033559 82 308 2.0 3.0 0.00 0.00 0.00 77 1015.0
20260904033459 82 307 1.0 3.0 0.00 0.00 0.00 77 1015.1
20260904033359 82 315 2.0 3.0 0.00 0.00 0.00 77 1015.2
20260904033259 82 296 2.0 3.0 0.00 0.00 0.00 77 1015.2
20260904033159 82 302 2.0 3.0 0.00 0.00 0.00 77 1015.1
20260904033058 82 297 2.0 3.0 0.00 0.00 0.00 77 1015.2
20260904033002 82 354 1.0 3.0 0.00 0.00 0.00 77 1015.2
20260904032859 82 305 2.0 3.0 0.00 0.00 0.00 77 1015.1
20260904032759 82 315 2.0 3.0 0.00 0.00 0.00 77 1015.2
20260904032659 82 284 0.0 3.0 0.00 0.00 0.00 77 1015.0
20260904032558 82 303 0.0 3.0 0.00 0.00 0.00 77 1015.1
20260904032501 82 296 0.0 3.0 0.00 0.00 0.00 76 1015.2
20260904032359 82 284 0.0 3.0 0.00 0.00 0.00 76 1015.2
20260904032300 82 273 0.0 3.0 0.00 0.00 0.00 76 1015.1
20260904032200 82 286 2.0 3.0 0.00 0.00 0.00 77 1015.1
20260904032100 82 295 2.0 3.0 0.00 0.00 0.00 76 1015.1
20260904032003 82 288 2.0 3.0 0.00 0.00 0.00 76 1015.0
20260904031859 82 307 1.0 2.0 0.00 0.00 0.00 76 1015.1
20260904031759 82 305 1.0 2.0 0.00 0.00 0.00 76 1015.1
20260904031659 82 328 2.0 3.0 0.00 0.00 0.00 76 1015.1
20260904031559 82 284 0.0 3.0 0.00 0.00 0.00 76 1015.1
20260904031500 82 294 0.0 3.0 0.00 0.00 0.00 76 1015.1
20260904031359 82 294 0.0 3.0 0.00 0.00 0.00 76 1015.1
20260904031259 82 281 0.0 3.0 0.00 0.00 0.00 76 1015.1
20260904031200 82 307 0.0 3.0 0.00 0.00 0.00 76 1015.1
20260904031059 82 317 0.0 3.0 0.00 0.00 0.00 76 1015.0
20260904030859 82 308 2.0 3.0 0.00 0.00 0.00 76 1015.0
20260904030759 82 274 1.0 3.0 0.00 0.00 0.00 76 1015.0
20260904030659 82 297 1.0 3.0 0.00 0.00 0.00 75 1015.1
20260904030500 82 282 2.0 3.0 0.00 0.00 0.00 75 1015.1
20260904030358 82 296 2.0 3.0 0.00 0.00 0.00 75 1015.1
20260904030300 82 285 2.0 3.0 0.00 0.00 0.00 75 1015.1
20260904030159 82 322 0.0 3.0 0.00 0.00 0.00 75 1015.1
20260904030059 82 307 0.0 3.0 0.00 0.00 0.00 75 1015.2
20260904030005 82 289 1.0 3.0 0.00 0.00 0.00 75 1015.2
20260904025859 83 331 1.0 3.0 0.00 0.00 0.00 75 1015.0
20260904025700 83 321 2.0 3.0 0.00 0.00 0.00 75 1015.1
20260904025559 83 302 0.0 3.0 0.00 0.00 0.00 75 1015.0
20260904025503 83 302 0.0 3.0 0.00 0.00 0.00 75 1015.1
20260904025400 83 305 0.0 3.0 0.00 0.00 0.00 75 1015.0
20260904025259 83 293 2.0 3.0 0.00 0.00 0.00 74 1015.1
20260904025159 83 307 0.0 3.0 0.00 0.00 0.00 75 1015.0
20260904025058 83 307 0.0 3.0 0.00 0.00 0.00 74 1015.1
20260904025004 83 300 0.0 3.0 0.00 0.00 0.00 74 1015.1
20260904024900 83 273 0.0 3.0 0.00 0.00 0.00 74 1015.2
20260904024759 83 294 0.0 3.0 0.00 0.00 0.00 74 1015.1
20260904024700 83 323 0.0 3.0 0.00 0.00 0.00 74 1015.2
20260904024558 83 321 0.0 3.0 0.00 0.00 0.00 74 1015.1
20260904024501 83 341 1.0 3.0 0.00 0.00 0.00 74 1015.2
20260904024358 83 253 0.0 3.0 0.00 0.00 0.00 74 1015.2
20260904024258 83 176 0.0 3.0 0.00 0.00 0.00 74 1015.2
20260904024059 83 243 0.0 3.0 0.00 0.00 0.00 74 1015.1
20260904024002 83 243 0.0 3.0 0.00 0.00 0.00 74 1015.1
20260904023900 83 295 0.0 3.0 0.00 0.00 0.00 73 1015.0
20260904023759 83 295 0.0 3.0 0.00 0.00 0.00 73 1015.1
20260904023659 83 295 0.0 3.0 0.00 0.00 0.00 73 1015.0
20260904023500 83 23 0.0 4.0 0.00 0.00 0.00 73 1015.0
20260904023359 83 347 0.0 4.0 0.00 0.00 0.00 73 1015.0
20260904023259 83 338 2.0 4.0 0.00 0.00 0.00 73 1015.0
20260904023159 83 286 0.0 4.0 0.00 0.00 0.00 73 1015.0
20260904023059 83 308 1.0 4.0 0.00 0.00 0.00 73 1014.9
20260904023003 83 267 0.0 4.0 0.00 0.00 0.00 73 1014.9
20260904022859 83 293 2.0 4.0 0.00 0.00 0.00 72 1014.9
20260904022759 83 317 3.0 4.0 0.00 0.00 0.00 72 1014.8
20260904022700 83 302 2.0 4.0 0.00 0.00 0.00 72 1014.9
20260904022559 83 295 0.0 4.0 0.00 0.00 0.00 72 1014.8
20260904022500 83 285 0.0 4.0 0.00 0.00 0.00 72 1014.7
20260904022359 83 300 0.0 4.0 0.00 0.00 0.00 72 1014.8
20260904022259 83 280 1.0 4.0 0.00 0.00 0.00 72 1014.9
20260904022159 83 286 3.0 4.0 0.00 0.00 0.00 72 1014.9
20260904022100 84 309 0.0 4.0 0.00 0.00 0.00 71 1014.9
20260904022002 84 309 0.0 4.0 0.00 0.00 0.00 71 1014.9
20260904021758 84 301 4.0 4.0 0.00 0.00 0.00 71 1015.1
20260904021659 84 193 0.0 2.0 0.00 0.00 0.00 71 1015.0
20260904021558 84 277 0.0 2.0 0.00 0.00 0.00 71 1015.0
20260904021359 84 163 0.0 3.0 0.00 0.00 0.00 70 1015.0
20260904021300 84 266 0.0 3.0 0.00 0.00 0.00 70 1015.0
20260904021159 84 286 1.0 3.0 0.00 0.00 0.00 70 1014.8
20260904021059 84 296 0.0 3.0 0.00 0.00 0.00 70 1014.9
20260904021004 84 146 0.0 3.0 0.00 0.00 0.00 70 1014.9
20260904020859 84 288 0.0 3.0 0.00 0.00 0.00 69 1014.9
20260904020800 84 301 0.0 3.0 0.00 0.00 0.00 69 1014.8
20260904020659 84 276 2.0 3.0 0.00 0.00 0.00 69 1014.8
20260904020600 84 252 2.0 3.0 0.00 0.00 0.00 69 1014.7
20260904020502 85 1 0.0 3.0 0.00 0.00 0.00 69 1014.7
20260904020359 85 239 0.0 3.0 0.00 0.00 0.00 68 1014.7
20260904020159 85 242 2.0 3.0 0.00 0.00 0.00 68 1014.7
20260904020100 85 293 3.0 3.0 0.00 0.00 0.00 68 1014.7
20260904020006 85 252 3.0 3.0 0.00 0.00 0.00 67 1014.7
20260904015859 85 314 0.0 3.0 0.00 0.00 0.00 67 1014.6
20260904015759 85 254 0.0 3.0 0.00 0.00 0.00 67 1014.5
20260904015559 85 293 0.0 1.0 0.00 0.00 0.00 67 1014.4
20260904015500 85 293 0.0 2.0 0.00 0.00 0.00 67 1014.4
20260904015358 85 292 0.0 2.0 0.00 0.00 0.00 66 1014.4
20260904015259 85 345 0.0 2.0 0.00 0.00 0.00 66 1014.4
20260904015159 85 345 0.0 2.0 0.00 0.00 0.00 66 1014.4
20260904015059 85 345 0.0 2.0 0.00 0.00 0.00 66 1014.4
20260904015003 85 282 0.0 2.0 0.00 0.00 0.00 66 1014.4
20260904014859 86 282 0.0 2.0 0.00 0.00 0.00 66 1014.3
20260904014800 86 282 0.0 2.0 0.00 0.00 0.00 65 1014.4
20260904014659 86 282 0.0 2.0 0.00 0.00 0.00 65 1014.4
20260904014559 86 307 0.0 2.0 0.00 0.00 0.00 65 1014.4
20260904014500 86 303 0.0 2.0 0.00 0.00 0.00 65 1014.4
20260904014359 86 303 0.0 2.0 0.00 0.00 0.00 65 1014.4
20260904014159 86 300 0.0 2.0 0.00 0.00 0.00 65 1014.4
20260904014100 86 309 0.0 2.0 0.00 0.00 0.00 64 1014.4
20260904014003 86 128 0.0 1.0 0.00 0.00 0.00 64 1014.4
20260904013900 86 303 0.0 1.0 0.00 0.00 0.00 64 1014.4
20260904013758 86 303 0.0 1.0 0.00 0.00 0.00 64 1014.4
20260904013659 86 303 0.0 1.0 0.00 0.00 0.00 63 1014.3
20260904013559 86 297 0.0 3.0 0.00 0.00 0.00 63 1014.3
20260904013502 86 288 0.0 3.0 0.00 0.00 0.00 63 1014.3
20260904013359 86 360 0.0 3.0 0.00 0.00 0.00 63 1014.3
20260904013300 86 360 0.0 3.0 0.00 0.00 0.00 63 1014.3
20260904013159 87 316 0.0 3.0 0.00 0.00 0.00 63 1014.2
20260904013059 87 323 0.0 3.0 0.00 0.00 0.00 63 1014.3
20260904013003 87 335 0.0 3.0 0.00 0.00 0.00 63 1014.2
20260904012859 87 335 0.0 3.0 0.00 0.00 0.00 63 1014.2
20260904012759 87 335 0.0 3.0 0.00 0.00 0.00 63 1014.2
20260904012659 87 34 0.0 3.0 0.00 0.00 0.00 63 1014.2
20260904012559 87 56 0.0 2.0 0.00 0.00 0.00 63 1014.1
20260904012359 87 296 0.0 2.0 0.00 0.00 0.00 63 1014.2
20260904012259 87 324 0.0 2.0 0.00 0.00 0.00 63 1014.2
20260904012158 87 324 0.0 2.0 0.00 0.00 0.00 63 1014.1
20260904012059 87 324 0.0 2.0 0.00 0.00 0.00 63 1014.1
20260904012003 87 312 0.0 2.0 0.00 0.00 0.00 62 1014.1